| time (UTC) | temp C | wind direction | speed KPH | gust KPH | rain 1hr cm | rain 24hr cm | rain mn cm | humidity % | barometer mb |
| 20260905152837 | 33 | 346 | 4.8 | 8.0 | 0.00 | 0.00 | 0.00 | 66 | 1014.4 |
| 20260905152723 | 33 | 360 | 4.8 | 8.0 | 0.00 | 0.00 | 0.00 | 66 | 1014.4 |
| 20260905152634 | 33 | 360 | 4.8 | 8.0 | 0.00 | 0.00 | 0.00 | 66 | 1014.4 |
| 20260905152520 | 33 | 321 | 3.2 | 8.0 | 0.00 | 0.00 | 0.00 | 65 | 1014.4 |
| 20260905152427 | 33 | 275 | 3.2 | 12.9 | 0.00 | 0.00 | 0.00 | 65 | 1014.3 |
| 20260905152332 | 33 | 32 | 4.8 | 12.9 | 0.00 | 0.00 | 0.00 | 67 | 1014.4 |
| 20260905152219 | 33 | 333 | 6.4 | 12.9 | 0.00 | 0.00 | 0.00 | 66 | 1014.4 |
| 20260905152127 | 33 | 360 | 4.8 | 12.9 | 0.00 | 0.00 | 0.00 | 67 | 1014.4 |
| 20260905152036 | 33 | 341 | 4.8 | 12.9 | 0.00 | 0.00 | 0.00 | 66 | 1014.4 |
| 20260905151922 | 33 | 280 | 4.8 | 12.9 | 0.00 | 0.00 | 0.00 | 66 | 1014.4 |
| 20260905151850 | 32 | 325 | 6.4 | 12.9 | 0.00 | 0.00 | 0.00 | 67 | 1014.3 |
| 20260905151800 | 32 | 355 | 6.4 | 12.9 | 0.00 | 0.00 | 0.00 | 67 | 1014.3 |
| 20260905151533 | 32 | 330 | 4.8 | 8.0 | 0.00 | 0.00 | 0.00 | 67 | 1014.4 |
| 20260905151423 | 32 | 5 | 4.8 | 8.0 | 0.00 | 0.00 | 0.00 | 66 | 1014.5 |
| 20260905151351 | 32 | 355 | 3.2 | 8.0 | 0.00 | 0.00 | 0.00 | 67 | 1014.5 |
| 20260905151237 | 32 | 298 | 4.8 | 8.0 | 0.00 | 0.00 | 0.00 | 67 | 1014.5 |
| 20260905151124 | 32 | 360 | 4.8 | 8.0 | 0.00 | 0.00 | 0.00 | 67 | 1014.4 |
| 20260905151031 | 32 | 344 | 3.2 | 6.4 | 0.00 | 0.00 | 0.00 | 68 | 1014.4 |
| 20260905150919 | 32 | 321 | 3.2 | 6.4 | 0.00 | 0.00 | 0.00 | 69 | 1014.4 |
| 20260905150830 | 32 | 313 | 3.2 | 4.8 | 0.00 | 0.00 | 0.00 | 68 | 1014.4 |
| 20260905150757 | 32 | 355 | 1.6 | 4.8 | 0.00 | 0.00 | 0.00 | 69 | 1014.4 |
| 20260905150622 | 32 | 338 | 1.6 | 4.8 | 0.00 | 0.00 | 0.00 | 69 | 1014.3 |
| 20260905150530 | 32 | 320 | 1.6 | 4.8 | 0.00 | 0.00 | 0.00 | 69 | 1014.3 |
| 20260905150457 | 32 | 296 | 3.2 | 4.8 | 0.00 | 0.00 | 0.00 | 69 | 1014.4 |
| 20260905150342 | 32 | 293 | 3.2 | 4.8 | 0.00 | 0.00 | 0.00 | 68 | 1014.4 |
| 20260905150317 | 32 | 307 | 1.6 | 4.8 | 0.00 | 0.00 | 0.00 | 69 | 1014.4 |
| 20260905150030 | 32 | 336 | 1.6 | 4.8 | 0.00 | 0.00 | 0.00 | 69 | 1014.3 |
| 20260905145936 | 32 | 296 | 1.6 | 4.8 | 0.00 | 0.00 | 0.00 | 69 | 1014.3 |
| 20260905145823 | 32 | 306 | 1.6 | 4.8 | 0.00 | 0.00 | 0.00 | 68 | 1014.4 |
| 20260905145731 | 32 | 281 | 1.6 | 4.8 | 0.00 | 0.00 | 0.00 | 68 | 1014.4 |
| 20260905145642 | 32 | 227 | 1.6 | 4.8 | 0.00 | 0.00 | 0.00 | 68 | 1014.3 |
| 20260905145528 | 32 | 271 | 1.6 | 4.8 | 0.00 | 0.00 | 0.00 | 67 | 1014.3 |
| 20260905145433 | 32 | 184 | 1.6 | 4.8 | 0.00 | 0.00 | 0.00 | 67 | 1014.3 |
| 20260905145322 | 32 | 217 | 1.6 | 4.8 | 0.00 | 0.00 | 0.00 | 67 | 1014.3 |
| 20260905145229 | 32 | 218 | 3.2 | 4.8 | 0.00 | 0.00 | 0.00 | 68 | 1014.4 |
| 20260905145136 | 32 | 253 | 3.2 | 4.8 | 0.00 | 0.00 | 0.00 | 68 | 1014.3 |
| 20260905145026 | 32 | 279 | 1.6 | 4.8 | 0.00 | 0.00 | 0.00 | 69 | 1014.4 |
| 20260905144934 | 32 | 244 | 1.6 | 4.8 | 0.00 | 0.00 | 0.00 | 67 | 1014.4 |
| 20260905144900 | 32 | 244 | 1.6 | 4.8 | 0.00 | 0.00 | 0.00 | 68 | 1014.3 |
| 20260905144810 | 32 | 267 | 1.6 | 4.8 | 0.00 | 0.00 | 0.00 | 68 | 1014.3 |
| 20260905144521 | 32 | 294 | 1.6 | 4.8 | 0.00 | 0.00 | 0.00 | 68 | 1014.3 |
| 20260905144433 | 32 | 294 | 1.6 | 4.8 | 0.00 | 0.00 | 0.00 | 69 | 1014.3 |
| 20260905144319 | 32 | 271 | 3.2 | 4.8 | 0.00 | 0.00 | 0.00 | 70 | 1014.4 |
| 20260905144226 | 31 | 271 | 3.2 | 4.8 | 0.00 | 0.00 | 0.00 | 69 | 1014.5 |
| 20260905144133 | 31 | 256 | 3.2 | 4.8 | 0.00 | 0.00 | 0.00 | 69 | 1014.4 |
| 20260905144021 | 31 | 273 | 1.6 | 4.8 | 0.00 | 0.00 | 0.00 | 69 | 1014.5 |
| 20260905143930 | 31 | 290 | 1.6 | 4.8 | 0.00 | 0.00 | 0.00 | 69 | 1014.5 |
| 20260905143837 | 31 | 290 | 1.6 | 4.8 | 0.00 | 0.00 | 0.00 | 69 | 1014.5 |
| 20260905143723 | 31 | 290 | 3.2 | 4.8 | 0.00 | 0.00 | 0.00 | 71 | 1014.6 |
| 20260905143631 | 31 | 277 | 3.2 | 4.8 | 0.00 | 0.00 | 0.00 | 72 | 1014.5 |
| 20260905143519 | 31 | 229 | 3.2 | 4.8 | 0.00 | 0.00 | 0.00 | 71 | 1014.5 |
| 20260905143426 | 31 | 215 | 3.2 | 4.8 | 0.00 | 0.00 | 0.00 | 73 | 1014.5 |
| 20260905143337 | 31 | 279 | 3.2 | 4.8 | 0.00 | 0.00 | 0.00 | 73 | 1014.6 |
| 20260905143308 | 31 | 288 | 1.6 | 4.8 | 0.00 | 0.00 | 0.00 | 72 | 1014.6 |
| 20260905143021 | 31 | 199 | 0.0 | 4.8 | 0.00 | 0.00 | 0.00 | 72 | 1014.6 |
| 20260905142927 | 31 | 198 | 0.0 | 4.8 | 0.00 | 0.00 | 0.00 | 72 | 1014.6 |
| 20260905142819 | 31 | 198 | 0.0 | 4.8 | 0.00 | 0.00 | 0.00 | 71 | 1014.6 |
| 20260905142726 | 31 | 240 | 0.0 | 4.8 | 0.00 | 0.00 | 0.00 | 72 | 1014.7 |
| 20260905142632 | 31 | 229 | 0.0 | 4.8 | 0.00 | 0.00 | 0.00 | 72 | 1014.6 |
| 20260905142519 | 31 | 229 | 1.6 | 4.8 | 0.00 | 0.00 | 0.00 | 72 | 1014.7 |
| 20260905142425 | 31 | 229 | 1.6 | 4.8 | 0.00 | 0.00 | 0.00 | 71 | 1014.6 |
| 20260905142331 | 31 | 201 | 0.0 | 4.8 | 0.00 | 0.00 | 0.00 | 72 | 1014.7 |
| 20260905142222 | 31 | 238 | 0.0 | 4.8 | 0.00 | 0.00 | 0.00 | 73 | 1014.7 |
| 20260905142129 | 31 | 270 | 0.0 | 4.8 | 0.00 | 0.00 | 0.00 | 73 | 1014.6 |
| 20260905142036 | 31 | 273 | 1.6 | 4.8 | 0.00 | 0.00 | 0.00 | 74 | 1014.7 |
| 20260905141923 | 31 | 273 | 1.6 | 4.8 | 0.00 | 0.00 | 0.00 | 74 | 1014.8 |
| 20260905141851 | 31 | 273 | 1.6 | 4.8 | 0.00 | 0.00 | 0.00 | 74 | 1014.8 |
| 20260905141825 | 31 | 304 | 1.6 | 4.8 | 0.00 | 0.00 | 0.00 | 75 | 1014.8 |
| 20260905141518 | 30 | 227 | 0.0 | 4.8 | 0.00 | 0.00 | 0.00 | 74 | 1014.8 |
| 20260905141445 | 30 | 225 | 1.6 | 4.8 | 0.00 | 0.00 | 0.00 | 75 | 1014.8 |
| 20260905141329 | 30 | 258 | 1.6 | 4.8 | 0.00 | 0.00 | 0.00 | 75 | 1014.8 |
| 20260905141236 | 30 | 273 | 1.6 | 4.8 | 0.00 | 0.00 | 0.00 | 76 | 1014.9 |
| 20260905141124 | 30 | 226 | 0.0 | 3.2 | 0.00 | 0.00 | 0.00 | 76 | 1014.9 |
| 20260905141056 | 30 | 192 | 0.0 | 3.2 | 0.00 | 0.00 | 0.00 | 75 | 1014.9 |
| 20260905140922 | 30 | 192 | 0.0 | 3.2 | 0.00 | 0.00 | 0.00 | 76 | 1014.8 |
| 20260905140829 | 30 | 247 | 0.0 | 3.2 | 0.00 | 0.00 | 0.00 | 76 | 1014.8 |
| 20260905140736 | 30 | 247 | 1.6 | 3.2 | 0.00 | 0.00 | 0.00 | 75 | 1014.9 |
| 20260905140624 | 30 | 217 | 0.0 | 3.2 | 0.00 | 0.00 | 0.00 | 75 | 1014.9 |
| 20260905140531 | 30 | 355 | 0.0 | 1.6 | 0.00 | 0.00 | 0.00 | 76 | 1014.9 |
| 20260905140421 | 30 | 355 | 0.0 | 1.6 | 0.00 | 0.00 | 0.00 | 76 | 1014.9 |
| 20260905140347 | 30 | 355 | 0.0 | 4.8 | 0.00 | 0.00 | 0.00 | 76 | 1014.8 |
| 20260905140316 | 30 | 275 | 0.0 | 4.8 | 0.00 | 0.00 | 0.00 | 76 | 1014.8 |
| 20260905140029 | 30 | 275 | 0.0 | 4.8 | 0.00 | 0.00 | 0.00 | 77 | 1014.8 |
| 20260905135920 | 30 | 275 | 0.0 | 6.4 | 0.00 | 0.00 | 0.00 | 77 | 1014.8 |
| 20260905135825 | 30 | 181 | 0.0 | 6.4 | 0.00 | 0.00 | 0.00 | 77 | 1014.9 |
| 20260905135732 | 29 | 181 | 0.0 | 6.4 | 0.00 | 0.00 | 0.00 | 77 | 1014.9 |
| 20260905135620 | 29 | 181 | 0.0 | 6.4 | 0.00 | 0.00 | 0.00 | 77 | 1014.9 |
| 20260905135529 | 29 | 182 | 1.6 | 6.4 | 0.00 | 0.00 | 0.00 | 77 | 1014.9 |
| 20260905135436 | 29 | 182 | 3.2 | 6.4 | 0.00 | 0.00 | 0.00 | 77 | 1014.9 |
| 20260905135327 | 29 | 172 | 1.6 | 6.4 | 0.00 | 0.00 | 0.00 | 79 | 1014.9 |
| 20260905135235 | 29 | 134 | 1.6 | 6.4 | 0.00 | 0.00 | 0.00 | 78 | 1014.9 |
| 20260905135139 | 29 | 201 | 3.2 | 6.4 | 0.00 | 0.00 | 0.00 | 77 | 1014.9 |
| 20260905135025 | 29 | 168 | 3.2 | 6.4 | 0.00 | 0.00 | 0.00 | 77 | 1015.0 |
| 20260905134933 | 29 | 179 | 3.2 | 6.4 | 0.00 | 0.00 | 0.00 | 78 | 1014.8 |
| 20260905134820 | 29 | 215 | 3.2 | 6.4 | 0.00 | 0.00 | 0.00 | 79 | 1014.9 |
| 20260905134754 | 29 | 150 | 3.2 | 6.4 | 0.00 | 0.00 | 0.00 | 80 | 1014.9 |
| 20260905134527 | 29 | 161 | 3.2 | 6.4 | 0.00 | 0.00 | 0.00 | 80 | 1014.9 |
| 20260905134455 | 28 | 137 | 0.0 | 4.8 | 0.00 | 0.00 | 0.00 | 80 | 1014.9 |
| 20260905134321 | 28 | 121 | 0.0 | 3.2 | 0.00 | 0.00 | 0.00 | 80 | 1014.8 |
| 20260905134229 | 28 | 121 | 0.0 | 3.2 | 0.00 | 0.00 | 0.00 | 80 | 1014.9 |
| 20260905134119 | 28 | 121 | 0.0 | 3.2 | 0.00 | 0.00 | 0.00 | 80 | 1014.8 |
| 20260905134026 | 28 | 121 | 0.0 | 3.2 | 0.00 | 0.00 | 0.00 | 80 | 1014.8 |
| 20260905133933 | 28 | 121 | 0.0 | 3.2 | 0.00 | 0.00 | 0.00 | 81 | 1014.9 |
| 20260905133820 | 28 | 156 | 0.0 | 1.6 | 0.00 | 0.00 | 0.00 | 81 | 1014.9 |
| 20260905133727 | 28 | 132 | 0.0 | 1.6 | 0.00 | 0.00 | 0.00 | 81 | 1014.9 |
| 20260905133636 | 28 | 132 | 0.0 | 0.0 | 0.00 | 0.00 | 0.00 | 81 | 1015.0 |
| 20260905133544 | 28 | 113 | 0.0 | 3.2 | 0.00 | 0.00 | 0.00 | 82 | 1015.0 |
| 20260905133432 | 28 | 113 | 0.0 | 4.8 | 0.00 | 0.00 | 0.00 | 82 | 1014.9 |
| 20260905133307 | 28 | 113 | 0.0 | 4.8 | 0.00 | 0.00 | 0.00 | 82 | 1014.9 |
| 20260905133025 | 27 | 109 | 0.0 | 4.8 | 0.00 | 0.00 | 0.00 | 82 | 1015.0 |
| 20260905132953 | 27 | 109 | 0.0 | 4.8 | 0.00 | 0.00 | 0.00 | 83 | 1015.0 |
| 20260905132858 | 27 | 109 | 0.0 | 4.8 | 0.00 | 0.00 | 0.00 | 83 | 1015.0 |
| 20260905132744 | 27 | 109 | 0.0 | 4.8 | 0.00 | 0.00 | 0.00 | 83 | 1014.9 |
| 20260905132630 | 27 | 109 | 0.0 | 4.8 | 0.00 | 0.00 | 0.00 | 83 | 1014.9 |
| 20260905132537 | 27 | 119 | 0.0 | 3.2 | 0.00 | 0.00 | 0.00 | 83 | 1014.9 |
| 20260905132423 | 27 | 155 | 0.0 | 3.2 | 0.00 | 0.00 | 0.00 | 84 | 1015.0 |
| 20260905132335 | 27 | 155 | 0.0 | 1.6 | 0.00 | 0.00 | 0.00 | 84 | 1015.0 |
| 20260905132221 | 27 | 117 | 0.0 | 1.6 | 0.00 | 0.00 | 0.00 | 85 | 1014.9 |
| 20260905132127 | 27 | 86 | 0.0 | 1.6 | 0.00 | 0.00 | 0.00 | 85 | 1015.0 |
| 20260905132035 | 27 | 86 | 0.0 | 1.6 | 0.00 | 0.00 | 0.00 | 85 | 1014.9 |
| 20260905131921 | 27 | 86 | 0.0 | 1.6 | 0.00 | 0.00 | 0.00 | 85 | 1014.9 |
| 20260905131832 | 27 | 86 | 0.0 | 1.6 | 0.00 | 0.00 | 0.00 | 85 | 1015.0 |
| 20260905131803 | 26 | 86 | 0.0 | 1.6 | 0.00 | 0.00 | 0.00 | 85 | 1015.0 |
| 20260905131537 | 26 | 86 | 0.0 | 1.6 | 0.00 | 0.00 | 0.00 | 86 | 1015.0 |
| 20260905131425 | 26 | 86 | 0.0 | 1.6 | 0.00 | 0.00 | 0.00 | 86 | 1015.0 |
| 20260905131332 | 26 | 112 | 0.0 | 1.6 | 0.00 | 0.00 | 0.00 | 86 | 1015.0 |
| 20260905131225 | 26 | 76 | 0.0 | 0.0 | 0.00 | 0.00 | 0.00 | 86 | 1015.0 |
| 20260905131133 | 26 | 76 | 0.0 | 1.6 | 0.00 | 0.00 | 0.00 | 86 | 1015.1 |
| 20260905131041 | 26 | 60 | 0.0 | 1.6 | 0.00 | 0.00 | 0.00 | 86 | 1015.0 |
| 20260905130928 | 26 | 60 | 0.0 | 1.6 | 0.00 | 0.00 | 0.00 | 86 | 1015.0 |
| 20260905130855 | 26 | 60 | 0.0 | 1.6 | 0.00 | 0.00 | 0.00 | 86 | 1015.0 |
| 20260905130721 | 26 | 60 | 0.0 | 1.6 | 0.00 | 0.00 | 0.00 | 86 | 1015.0 |
| 20260905130633 | 26 | 60 | 0.0 | 1.6 | 0.00 | 0.00 | 0.00 | 86 | 1014.9 |
| 20260905130520 | 26 | 60 | 0.0 | 1.6 | 0.00 | 0.00 | 0.00 | 87 | 1015.0 |
| 20260905130427 | 26 | 60 | 0.0 | 1.6 | 0.00 | 0.00 | 0.00 | 87 | 1015.0 |
| 20260905130335 | 26 | 60 | 0.0 | 3.2 | 0.00 | 0.00 | 0.00 | 87 | 1014.9 |
| 20260905130309 | 26 | 60 | 0.0 | 4.8 | 0.00 | 0.00 | 0.00 | 87 | 1014.9 |
| 20260905130041 | 26 | 60 | 0.0 | 4.8 | 0.00 | 0.00 | 0.00 | 87 | 1015.0 |
| 20260905125927 | 26 | 68 | 0.0 | 4.8 | 0.00 | 0.00 | 0.00 | 88 | 1015.0 |
| 20260905125852 | 26 | 68 | 0.0 | 4.8 | 0.00 | 0.00 | 0.00 | 88 | 1015.0 |
| 20260905125737 | 26 | 68 | 0.0 | 4.8 | 0.00 | 0.00 | 0.00 | 88 | 1014.9 |
| 20260905125625 | 25 | 130 | 1.6 | 4.8 | 0.00 | 0.00 | 0.00 | 88 | 1015.0 |
| 20260905125551 | 25 | 130 | 1.6 | 4.8 | 0.00 | 0.00 | 0.00 | 88 | 1015.0 |
| 20260905125422 | 25 | 146 | 1.6 | 4.8 | 0.00 | 0.00 | 0.00 | 88 | 1015.0 |
| 20260905125330 | 25 | 146 | 1.6 | 4.8 | 0.00 | 0.00 | 0.00 | 88 | 1015.0 |
| 20260905125237 | 25 | 113 | 1.6 | 3.2 | 0.00 | 0.00 | 0.00 | 88 | 1014.9 |
| 20260905125124 | 25 | 55 | 0.0 | 1.6 | 0.00 | 0.00 | 0.00 | 88 | 1015.0 |
| 20260905125029 | 25 | 23 | 0.0 | 0.0 | 0.00 | 0.00 | 0.00 | 88 | 1015.0 |
| 20260905124921 | 25 | 23 | 0.0 | 0.0 | 0.00 | 0.00 | 0.00 | 88 | 1014.9 |
| 20260905124827 | 25 | 23 | 0.0 | 0.0 | 0.00 | 0.00 | 0.00 | 88 | 1015.0 |
| 20260905124757 | 25 | 23 | 0.0 | 0.0 | 0.00 | 0.00 | 0.00 | 88 | 1015.0 |
| 20260905124529 | 25 | 23 | 0.0 | 0.0 | 0.00 | 0.00 | 0.00 | 88 | 1015.0 |
| 20260905124456 | 25 | 23 | 0.0 | 0.0 | 0.00 | 0.00 | 0.00 | 89 | 1014.9 |
| 20260905124326 | 25 | 23 | 0.0 | 0.0 | 0.00 | 0.00 | 0.00 | 89 | 1014.9 |
| 20260905124233 | 25 | 23 | 0.0 | 0.0 | 0.00 | 0.00 | 0.00 | 89 | 1014.9 |
| 20260905124120 | 25 | 23 | 0.0 | 0.0 | 0.00 | 0.00 | 0.00 | 89 | 1014.9 |
| 20260905124027 | 25 | 23 | 0.0 | 0.0 | 0.00 | 0.00 | 0.00 | 89 | 1014.9 |
| 20260905123934 | 25 | 23 | 0.0 | 0.0 | 0.00 | 0.00 | 0.00 | 89 | 1014.9 |
| 20260905123820 | 25 | 23 | 0.0 | 0.0 | 0.00 | 0.00 | 0.00 | 89 | 1015.0 |
| 20260905123731 | 25 | 23 | 0.0 | 1.6 | 0.00 | 0.00 | 0.00 | 89 | 1014.9 |
| 20260905123619 | 25 | 23 | 0.0 | 1.6 | 0.00 | 0.00 | 0.00 | 89 | 1015.0 |
| 20260905123527 | 25 | 23 | 0.0 | 1.6 | 0.00 | 0.00 | 0.00 | 89 | 1014.9 |
| 20260905123433 | 25 | 23 | 0.0 | 1.6 | 0.00 | 0.00 | 0.00 | 89 | 1015.0 |
| 20260905123322 | 25 | 23 | 0.0 | 1.6 | 0.00 | 0.00 | 0.00 | 89 | 1014.9 |
| 20260905123258 | 25 | 23 | 0.0 | 1.6 | 0.00 | 0.00 | 0.00 | 89 | 1014.9 |
| 20260905123031 | 25 | 23 | 0.0 | 1.6 | 0.00 | 0.00 | 0.00 | 90 | 1015.0 |
| 20260905122919 | 24 | 23 | 0.0 | 1.6 | 0.00 | 0.00 | 0.00 | 90 | 1015.0 |
| 20260905122827 | 24 | 23 | 0.0 | 3.2 | 0.00 | 0.00 | 0.00 | 90 | 1015.0 |
| 20260905122719 | 24 | 23 | 0.0 | 3.2 | 0.00 | 0.00 | 0.00 | 90 | 1015.0 |
| 20260905122648 | 24 | 23 | 0.0 | 3.2 | 0.00 | 0.00 | 0.00 | 90 | 1015.0 |
| 20260905122554 | 24 | 23 | 0.0 | 3.2 | 0.00 | 0.00 | 0.00 | 90 | 1015.0 |
| 20260905122419 | 24 | 23 | 0.0 | 3.2 | 0.00 | 0.00 | 0.00 | 90 | 1015.0 |
| 20260905122327 | 24 | 23 | 1.6 | 3.2 | 0.00 | 0.00 | 0.00 | 90 | 1015.0 |
| 20260905122234 | 24 | 23 | 1.6 | 3.2 | 0.00 | 0.00 | 0.00 | 91 | 1015.0 |
| 20260905122140 | 24 | 23 | 1.6 | 3.2 | 0.00 | 0.00 | 0.00 | 91 | 1014.9 |
| 20260905122031 | 24 | 23 | 1.6 | 3.2 | 0.00 | 0.00 | 0.00 | 91 | 1015.0 |
| 20260905121919 | 24 | 23 | 1.6 | 3.2 | 0.00 | 0.00 | 0.00 | 91 | 1014.9 |
| 20260905121846 | 24 | 23 | 1.6 | 3.2 | 0.00 | 0.00 | 0.00 | 91 | 1014.9 |
| 20260905121755 | 24 | 23 | 3.2 | 3.2 | 0.00 | 0.00 | 0.00 | 91 | 1014.9 |
| 20260905121529 | 23 | 23 | 1.6 | 3.2 | 0.00 | 0.00 | 0.00 | 91 | 1014.9 |
| 20260905121421 | 23 | 23 | 1.6 | 4.8 | 0.00 | 0.00 | 0.00 | 91 | 1014.8 |
| 20260905121348 | 23 | 23 | 0.0 | 4.8 | 0.00 | 0.00 | 0.00 | 91 | 1014.8 |
| 20260905121233 | 23 | 23 | 0.0 | 4.8 | 0.00 | 0.00 | 0.00 | 91 | 1014.9 |
| 20260905121121 | 23 | 23 | 0.0 | 4.8 | 0.00 | 0.00 | 0.00 | 91 | 1014.8 |
| 20260905121047 | 23 | 23 | 1.6 | 4.8 | 0.00 | 0.00 | 0.00 | 91 | 1014.8 |
| 20260905120933 | 23 | 23 | 0.0 | 4.8 | 0.00 | 0.00 | 0.00 | 91 | 1014.8 |
| 20260905120825 | 23 | 23 | 1.6 | 4.8 | 0.00 | 0.00 | 0.00 | 92 | 1014.8 |
| 20260905120734 | 23 | 23 | 1.6 | 4.8 | 0.00 | 0.00 | 0.00 | 91 | 1014.8 |
| 20260905120621 | 23 | 23 | 1.6 | 4.8 | 0.00 | 0.00 | 0.00 | 92 | 1014.7 |
| 20260905120526 | 23 | 23 | 1.6 | 4.8 | 0.00 | 0.00 | 0.00 | 92 | 1014.7 |
| 20260905120434 | 23 | 23 | 1.6 | 4.8 | 0.00 | 0.00 | 0.00 | 92 | 1014.7 |
| 20260905120400 | 23 | 23 | 1.6 | 4.8 | 0.00 | 0.00 | 0.00 | 92 | 1014.7 |
| 20260905120313 | 23 | 23 | 1.6 | 3.2 | 0.00 | 0.00 | 0.00 | 92 | 1014.7 |
| 20260905120025 | 23 | 23 | 0.0 | 3.2 | 0.00 | 0.00 | 0.00 | 92 | 1014.7 |
| 20260905115931 | 23 | 23 | 0.0 | 1.6 | 0.00 | 0.00 | 0.00 | 92 | 1014.6 |
| 20260905115858 | 23 | 23 | 0.0 | 3.2 | 0.00 | 0.00 | 0.00 | 92 | 1014.6 |
| 20260905115724 | 23 | 23 | 0.0 | 3.2 | 0.00 | 0.00 | 0.00 | 92 | 1014.7 |
| 20260905115631 | 23 | 23 | 0.0 | 3.2 | 0.00 | 0.00 | 0.00 | 92 | 1014.6 |
| 20260905115522 | 23 | 23 | 0.0 | 3.2 | 0.00 | 0.00 | 0.00 | 91 | 1014.6 |
| 20260905115428 | 23 | 23 | 0.0 | 4.8 | 0.00 | 0.00 | 0.00 | 91 | 1014.6 |
| 20260905115336 | 23 | 23 | 0.0 | 4.8 | 0.00 | 0.00 | 0.00 | 91 | 1014.6 |
| 20260905115222 | 23 | 23 | 0.0 | 4.8 | 0.00 | 0.00 | 0.00 | 91 | 1014.6 |
| 20260905115129 | 23 | 23 | 1.6 | 4.8 | 0.00 | 0.00 | 0.00 | 91 | 1014.5 |
| 20260905115020 | 23 | 23 | 1.6 | 4.8 | 0.00 | 0.00 | 0.00 | 91 | 1014.5 |
| 20260905114947 | 23 | 23 | 1.6 | 4.8 | 0.00 | 0.00 | 0.00 | 91 | 1014.5 |
| 20260905114853 | 23 | 23 | 1.6 | 6.4 | 0.00 | 0.00 | 0.00 | 92 | 1014.5 |
| 20260905114801 | 23 | 23 | 3.2 | 6.4 | 0.00 | 0.00 | 0.00 | 92 | 1014.5 |
| 20260905114534 | 23 | 23 | 3.2 | 6.4 | 0.00 | 0.00 | 0.00 | 92 | 1014.4 |
| 20260905114426 | 23 | 23 | 3.2 | 6.4 | 0.00 | 0.00 | 0.00 | 92 | 1014.4 |
| 20260905114333 | 23 | 23 | 3.2 | 6.4 | 0.00 | 0.00 | 0.00 | 91 | 1014.4 |
| 20260905114220 | 23 | 23 | 3.2 | 6.4 | 0.00 | 0.00 | 0.00 | 91 | 1014.4 |
| 20260905114126 | 23 | 23 | 3.2 | 6.4 | 0.00 | 0.00 | 0.00 | 91 | 1014.4 |
| 20260905114033 | 23 | 23 | 3.2 | 6.4 | 0.00 | 0.00 | 0.00 | 92 | 1014.3 |
| 20260905113920 | 23 | 23 | 3.2 | 4.8 | 0.00 | 0.00 | 0.00 | 92 | 1014.3 |
| 20260905113832 | 23 | 23 | 4.8 | 4.8 | 0.00 | 0.00 | 0.00 | 92 | 1014.3 |
| 20260905113720 | 23 | 23 | 3.2 | 4.8 | 0.00 | 0.00 | 0.00 | 91 | 1014.3 |
| 20260905113627 | 23 | 23 | 1.6 | 4.8 | 0.00 | 0.00 | 0.00 | 91 | 1014.3 |
| 20260905113535 | 23 | 23 | 0.0 | 0.0 | 0.00 | 0.00 | 0.00 | 91 | 1014.2 |
| 20260905113424 | 23 | 23 | 0.0 | 0.0 | 0.00 | 0.00 | 0.00 | 92 | 1014.2 |
| 20260905113305 | 23 | 23 | 0.0 | 0.0 | 0.00 | 0.00 | 0.00 | 92 | 1014.3 |
| 20260905113037 | 23 | 23 | 0.0 | 0.0 | 0.00 | 0.00 | 0.00 | 91 | 1014.2 |
| 20260905112923 | 23 | 23 | 0.0 | 0.0 | 0.00 | 0.00 | 0.00 | 92 | 1014.1 |
| 20260905112830 | 23 | 23 | 0.0 | 0.0 | 0.00 | 0.00 | 0.00 | 92 | 1014.3 |
| 20260905112720 | 23 | 23 | 0.0 | 0.0 | 0.00 | 0.00 | 0.00 | 92 | 1014.2 |
| 20260905112627 | 23 | 23 | 0.0 | 0.0 | 0.00 | 0.00 | 0.00 | 92 | 1014.2 |
| 20260905112554 | 23 | 23 | 0.0 | 0.0 | 0.00 | 0.00 | 0.00 | 92 | 1014.2 |
| 20260905112419 | 23 | 23 | 0.0 | 0.0 | 0.00 | 0.00 | 0.00 | 92 | 1014.2 |
| 20260905112325 | 23 | 23 | 0.0 | 0.0 | 0.00 | 0.00 | 0.00 | 91 | 1014.1 |
| 20260905112232 | 23 | 23 | 0.0 | 0.0 | 0.00 | 0.00 | 0.00 | 91 | 1014.2 |
| 20260905112123 | 23 | 23 | 0.0 | 0.0 | 0.00 | 0.00 | 0.00 | 91 | 1014.1 |
| 20260905112030 | 23 | 23 | 0.0 | 0.0 | 0.00 | 0.00 | 0.00 | 91 | 1014.1 |
| 20260905111958 | 23 | 23 | 0.0 | 0.0 | 0.00 | 0.00 | 0.00 | 91 | 1014.0 |
| 20260905111823 | 23 | 23 | 0.0 | 0.0 | 0.00 | 0.00 | 0.00 | 91 | 1014.0 |
| 20260905111757 | 23 | 23 | 0.0 | 0.0 | 0.00 | 0.00 | 0.00 | 91 | 1014.0 |
| 20260905111529 | 23 | 23 | 0.0 | 0.0 | 0.00 | 0.00 | 0.00 | 91 | 1013.9 |
| 20260905111457 | 23 | 23 | 0.0 | 0.0 | 0.00 | 0.00 | 0.00 | 91 | 1014.0 |
| 20260905111322 | 23 | 23 | 0.0 | 0.0 | 0.00 | 0.00 | 0.00 | 91 | 1013.9 |
| 20260905111228 | 23 | 23 | 0.0 | 0.0 | 0.00 | 0.00 | 0.00 | 91 | 1014.0 |
| 20260905111135 | 23 | 23 | 0.0 | 0.0 | 0.00 | 0.00 | 0.00 | 91 | 1013.9 |
| 20260905111023 | 23 | 23 | 0.0 | 0.0 | 0.00 | 0.00 | 0.00 | 91 | 1013.9 |
| 20260905110950 | 23 | 23 | 0.0 | 0.0 | 0.00 | 0.00 | 0.00 | 91 | 1013.8 |
| 20260905110820 | 23 | 23 | 0.0 | 0.0 | 0.00 | 0.00 | 0.00 | 91 | 1013.8 |
| 20260905110728 | 23 | 23 | 0.0 | 0.0 | 0.00 | 0.00 | 0.00 | 91 | 1013.8 |
| 20260905110634 | 23 | 23 | 0.0 | 0.0 | 0.00 | 0.00 | 0.00 | 91 | 1013.8 |
| 20260905110523 | 23 | 23 | 0.0 | 0.0 | 0.00 | 0.00 | 0.00 | 91 | 1013.9 |
| 20260905110431 | 23 | 23 | 0.0 | 0.0 | 0.00 | 0.00 | 0.00 | 91 | 1013.7 |
| 20260905110322 | 23 | 23 | 0.0 | 0.0 | 0.00 | 0.00 | 0.00 | 91 | 1013.7 |
| 20260905110252 | 23 | 23 | 0.0 | 0.0 | 0.00 | 0.00 | 0.00 | 91 | 1013.7 |
| 20260905110025 | 23 | 23 | 0.0 | 0.0 | 0.00 | 0.00 | 0.00 | 91 | 1013.7 |
| 20260905105932 | 23 | 23 | 0.0 | 0.0 | 0.00 | 0.00 | 0.00 | 91 | 1013.7 |
| 20260905105822 | 23 | 23 | 0.0 | 0.0 | 0.00 | 0.00 | 0.00 | 91 | 1013.7 |
| 20260905105730 | 23 | 23 | 0.0 | 0.0 | 0.00 | 0.00 | 0.00 | 91 | 1013.7 |
| 20260905105618 | 23 | 23 | 0.0 | 0.0 | 0.00 | 0.00 | 0.00 | 91 | 1013.6 |
| 20260905105525 | 23 | 23 | 0.0 | 0.0 | 0.00 | 0.00 | 0.00 | 91 | 1013.6 |
| 20260905105430 | 23 | 23 | 0.0 | 0.0 | 0.00 | 0.00 | 0.00 | 91 | 1013.6 |
| 20260905105319 | 23 | 23 | 0.0 | 0.0 | 0.00 | 0.00 | 0.00 | 91 | 1013.7 |
| 20260905105231 | 23 | 23 | 0.0 | 0.0 | 0.00 | 0.00 | 0.00 | 91 | 1013.6 |
| 20260905105119 | 23 | 23 | 0.0 | 0.0 | 0.00 | 0.00 | 0.00 | 91 | 1013.7 |
| 20260905105045 | 23 | 23 | 0.0 | 0.0 | 0.00 | 0.00 | 0.00 | 91 | 1013.7 |
| 20260905104932 | 23 | 23 | 0.0 | 0.0 | 0.00 | 0.00 | 0.00 | 91 | 1013.7 |
| 20260905104820 | 23 | 23 | 0.0 | 0.0 | 0.00 | 0.00 | 0.00 | 91 | 1013.7 |
| 20260905104755 | 23 | 23 | 0.0 | 0.0 | 0.00 | 0.00 | 0.00 | 91 | 1013.7 |
| 20260905104529 | 23 | 23 | 0.0 | 0.0 | 0.00 | 0.00 | 0.00 | 91 | 1013.7 |
| 20260905104435 | 23 | 23 | 0.0 | 0.0 | 0.00 | 0.00 | 0.00 | 91 | 1013.7 |
| 20260905104322 | 23 | 23 | 0.0 | 0.0 | 0.00 | 0.00 | 0.00 | 91 | 1013.6 |
| 20260905104229 | 23 | 23 | 0.0 | 0.0 | 0.00 | 0.00 | 0.00 | 91 | 1013.7 |
| 20260905104121 | 23 | 23 | 0.0 | 0.0 | 0.00 | 0.00 | 0.00 | 91 | 1013.6 |
| 20260905104029 | 23 | 23 | 0.0 | 0.0 | 0.00 | 0.00 | 0.00 | 91 | 1013.6 |
| 20260905103935 | 23 | 23 | 0.0 | 0.0 | 0.00 | 0.00 | 0.00 | 91 | 1013.6 |
| 20260905103841 | 23 | 23 | 0.0 | 0.0 | 0.00 | 0.00 | 0.00 | 91 | 1013.6 |
| 20260905103728 | 23 | 23 | 0.0 | 0.0 | 0.00 | 0.00 | 0.00 | 90 | 1013.6 |
| 20260905103634 | 23 | 23 | 0.0 | 0.0 | 0.00 | 0.00 | 0.00 | 90 | 1013.6 |
| 20260905103526 | 23 | 23 | 0.0 | 0.0 | 0.00 | 0.00 | 0.00 | 90 | 1013.6 |
| 20260905103432 | 23 | 23 | 0.0 | 0.0 | 0.00 | 0.00 | 0.00 | 90 | 1013.5 |
| 20260905103401 | 23 | 23 | 0.0 | 0.0 | 0.00 | 0.00 | 0.00 | 90 | 1013.5 |
| 20260905103310 | 23 | 23 | 0.0 | 0.0 | 0.00 | 0.00 | 0.00 | 91 | 1013.5 |
| 20260905103024 | 23 | 23 | 0.0 | 1.6 | 0.00 | 0.00 | 0.00 | 91 | 1013.5 |
| 20260905102936 | 23 | 23 | 0.0 | 3.2 | 0.00 | 0.00 | 0.00 | 90 | 1013.5 |
| 20260905102821 | 23 | 23 | 0.0 | 3.2 | 0.00 | 0.00 | 0.00 | 90 | 1013.4 |
| 20260905102728 | 23 | 23 | 0.0 | 3.2 | 0.00 | 0.00 | 0.00 | 90 | 1013.4 |
| 20260905102635 | 23 | 23 | 0.0 | 3.2 | 0.00 | 0.00 | 0.00 | 90 | 1013.3 |
| 20260905102523 | 23 | 23 | 0.0 | 3.2 | 0.00 | 0.00 | 0.00 | 90 | 1013.3 |
| 20260905102451 | 23 | 23 | 0.0 | 3.2 | 0.00 | 0.00 | 0.00 | 90 | 1013.3 |
| 20260905102321 | 23 | 23 | 0.0 | 3.2 | 0.00 | 0.00 | 0.00 | 90 | 1013.4 |
| 20260905102228 | 23 | 23 | 1.6 | 3.2 | 0.00 | 0.00 | 0.00 | 90 | 1013.2 |
| 20260905102135 | 23 | 23 | 1.6 | 3.2 | 0.00 | 0.00 | 0.00 | 90 | 1013.3 |
| 20260905102021 | 23 | 23 | 1.6 | 3.2 | 0.00 | 0.00 | 0.00 | 90 | 1013.3 |
| 20260905101948 | 23 | 23 | 1.6 | 3.2 | 0.00 | 0.00 | 0.00 | 90 | 1013.3 |
| 20260905101808 | 23 | 23 | 1.6 | 3.2 | 0.00 | 0.00 | 0.00 | 90 | 1013.3 |
| 20260905101521 | 23 | 23 | 1.6 | 3.2 | 0.00 | 0.00 | 0.00 | 91 | 1013.3 |
| 20260905101429 | 23 | 23 | 1.6 | 3.2 | 0.00 | 0.00 | 0.00 | 90 | 1013.3 |
| 20260905101317 | 23 | 23 | 1.6 | 3.2 | 0.00 | 0.00 | 0.00 | 90 | 1013.3 |
| 20260905101244 | 23 | 23 | 1.6 | 3.2 | 0.00 | 0.00 | 0.00 | 90 | 1013.3 |
| 20260905101133 | 23 | 23 | 1.6 | 3.2 | 0.00 | 0.00 | 0.00 | 91 | 1013.3 |
| 20260905101021 | 23 | 23 | 1.6 | 3.2 | 0.00 | 0.00 | 0.00 | 91 | 1013.3 |
| 20260905100926 | 23 | 23 | 1.6 | 3.2 | 0.00 | 0.00 | 0.00 | 91 | 1013.3 |
| 20260905100854 | 23 | 23 | 1.6 | 3.2 | 0.00 | 0.00 | 0.00 | 91 | 1013.2 |
| 20260905100739 | 23 | 23 | 1.6 | 3.2 | 0.00 | 0.00 | 0.00 | 91 | 1013.2 |
| 20260905100623 | 23 | 23 | 1.6 | 3.2 | 0.00 | 0.00 | 0.00 | 91 | 1013.3 |
| 20260905100531 | 23 | 23 | 1.6 | 3.2 | 0.00 | 0.00 | 0.00 | 91 | 1013.2 |
| 20260905100422 | 23 | 23 | 1.6 | 3.2 | 0.00 | 0.00 | 0.00 | 91 | 1013.3 |
| 20260905100329 | 23 | 23 | 1.6 | 3.2 | 0.00 | 0.00 | 0.00 | 91 | 1013.2 |
| 20260905100259 | 23 | 23 | 3.2 | 3.2 | 0.00 | 0.00 | 0.00 | 91 | 1013.2 |
| 20260905100034 | 23 | 23 | 3.2 | 3.2 | 0.00 | 0.00 | 0.00 | 91 | 1013.3 |
| 20260905095925 | 23 | 23 | 3.2 | 3.2 | 0.00 | 0.00 | 0.00 | 91 | 1013.3 |
| 20260905095832 | 23 | 23 | 1.6 | 3.2 | 0.00 | 0.00 | 0.00 | 91 | 1013.3 |
| 20260905095720 | 23 | 23 | 0.0 | 3.2 | 0.00 | 0.00 | 0.00 | 91 | 1013.3 |
| 20260905095628 | 23 | 23 | 0.0 | 0.0 | 0.00 | 0.00 | 0.00 | 92 | 1013.3 |
| 20260905095536 | 23 | 23 | 0.0 | 0.0 | 0.00 | 0.00 | 0.00 | 92 | 1013.3 |
| 20260905095422 | 23 | 23 | 0.0 | 0.0 | 0.00 | 0.00 | 0.00 | 92 | 1013.3 |
| 20260905095355 | 23 | 23 | 0.0 | 0.0 | 0.00 | 0.00 | 0.00 | 92 | 1013.3 |
| 20260905095221 | 23 | 23 | 0.0 | 0.0 | 0.00 | 0.00 | 0.00 | 91 | 1013.3 |
| 20260905095127 | 23 | 23 | 0.0 | 0.0 | 0.00 | 0.00 | 0.00 | 91 | 1013.2 |
| 20260905095034 | 23 | 23 | 0.0 | 0.0 | 0.00 | 0.00 | 0.00 | 92 | 1013.2 |
| 20260905094921 | 23 | 23 | 0.0 | 0.0 | 0.00 | 0.00 | 0.00 | 92 | 1013.3 |
| 20260905094850 | 23 | 23 | 0.0 | 1.6 | 0.00 | 0.00 | 0.00 | 92 | 1013.3 |
| 20260905094822 | 23 | 23 | 0.0 | 1.6 | 0.00 | 0.00 | 0.00 | 92 | 1013.3 |
| 20260905094533 | 23 | 23 | 0.0 | 1.6 | 0.00 | 0.00 | 0.00 | 92 | 1013.4 |
| 20260905094421 | 23 | 23 | 0.0 | 1.6 | 0.00 | 0.00 | 0.00 | 92 | 1013.4 |
| 20260905094329 | 23 | 23 | 0.0 | 1.6 | 0.00 | 0.00 | 0.00 | 91 | 1013.4 |
| 20260905094220 | 23 | 23 | 0.0 | 1.6 | 0.00 | 0.00 | 0.00 | 91 | 1013.3 |
| 20260905094127 | 23 | 23 | 0.0 | 1.6 | 0.00 | 0.00 | 0.00 | 91 | 1013.4 |
| 20260905094033 | 23 | 23 | 1.6 | 1.6 | 0.00 | 0.00 | 0.00 | 91 | 1013.3 |
| 20260905093921 | 23 | 23 | 0.0 | 1.6 | 0.00 | 0.00 | 0.00 | 91 | 1013.3 |
| 20260905093848 | 23 | 23 | 0.0 | 1.6 | 0.00 | 0.00 | 0.00 | 91 | 1013.2 |
| 20260905093733 | 23 | 23 | 0.0 | 1.6 | 0.00 | 0.00 | 0.00 | 91 | 1013.2 |
| 20260905093619 | 23 | 23 | 0.0 | 1.6 | 0.00 | 0.00 | 0.00 | 91 | 1013.2 |
| 20260905093528 | 23 | 23 | 0.0 | 1.6 | 0.00 | 0.00 | 0.00 | 91 | 1013.2 |
| 20260905093435 | 23 | 23 | 0.0 | 1.6 | 0.00 | 0.00 | 0.00 | 91 | 1013.2 |
| 20260905093323 | 23 | 23 | 0.0 | 1.6 | 0.00 | 0.00 | 0.00 | 91 | 1013.2 |
| 20260905093251 | 23 | 23 | 0.0 | 1.6 | 0.00 | 0.00 | 0.00 | 91 | 1013.2 |
| 20260905093029 | 23 | 23 | 0.0 | 3.2 | 0.00 | 0.00 | 0.00 | 91 | 1013.2 |
| 20260905092936 | 23 | 23 | 0.0 | 4.8 | 0.00 | 0.00 | 0.00 | 91 | 1013.2 |
| 20260905092843 | 23 | 23 | 0.0 | 4.8 | 0.00 | 0.00 | 0.00 | 90 | 1013.1 |
| 20260905092728 | 23 | 23 | 0.0 | 4.8 | 0.00 | 0.00 | 0.00 | 90 | 1013.2 |
| 20260905092635 | 23 | 23 | 0.0 | 4.8 | 0.00 | 0.00 | 0.00 | 91 | 1013.2 |
| 20260905092522 | 23 | 23 | 0.0 | 4.8 | 0.00 | 0.00 | 0.00 | 91 | 1013.3 |
| 20260905092433 | 23 | 23 | 0.0 | 4.8 | 0.00 | 0.00 | 0.00 | 91 | 1013.2 |
| 20260905092320 | 23 | 23 | 1.6 | 4.8 | 0.00 | 0.00 | 0.00 | 91 | 1013.2 |
| 20260905092226 | 23 | 23 | 3.2 | 4.8 | 0.00 | 0.00 | 0.00 | 91 | 1013.2 |
| 20260905092133 | 23 | 23 | 3.2 | 4.8 | 0.00 | 0.00 | 0.00 | 91 | 1013.2 |
| 20260905092040 | 23 | 23 | 3.2 | 4.8 | 0.00 | 0.00 | 0.00 | 91 | 1013.1 |
| 20260905091925 | 23 | 23 | 3.2 | 6.4 | 0.00 | 0.00 | 0.00 | 91 | 1013.1 |
| 20260905091837 | 23 | 23 | 3.2 | 6.4 | 0.00 | 0.00 | 0.00 | 91 | 1013.1 |
| 20260905091807 | 23 | 23 | 3.2 | 6.4 | 0.00 | 0.00 | 0.00 | 90 | 1013.1 |
| 20260905091520 | 23 | 23 | 3.2 | 6.4 | 0.00 | 0.00 | 0.00 | 90 | 1013.2 |
| 20260905091447 | 23 | 23 | 3.2 | 6.4 | 0.00 | 0.00 | 0.00 | 91 | 1013.1 |
| 20260905091333 | 23 | 23 | 3.2 | 6.4 | 0.00 | 0.00 | 0.00 | 91 | 1013.2 |
| 20260905091245 | 23 | 23 | 3.2 | 6.4 | 0.00 | 0.00 | 0.00 | 91 | 1013.2 |
| 20260905091131 | 23 | 5 | 4.8 | 6.4 | 0.00 | 0.00 | 0.00 | 90 | 1013.2 |
| 20260905091019 | 23 | 5 | 4.8 | 6.4 | 0.00 | 0.00 | 0.00 | 90 | 1013.2 |
| 20260905090945 | 23 | 5 | 4.8 | 6.4 | 0.00 | 0.00 | 0.00 | 90 | 1013.2 |
| 20260905090831 | 23 | 355 | 4.8 | 6.4 | 0.00 | 0.00 | 0.00 | 90 | 1013.1 |
| 20260905090718 | 23 | 360 | 4.8 | 6.4 | 0.00 | 0.00 | 0.00 | 90 | 1013.2 |
| 20260905090645 | 23 | 360 | 4.8 | 6.4 | 0.00 | 0.00 | 0.00 | 90 | 1013.1 |
| 20260905090535 | 23 | 360 | 4.8 | 6.4 | 0.00 | 0.00 | 0.00 | 90 | 1013.1 |
| 20260905090422 | 24 | 360 | 3.2 | 4.8 | 0.00 | 0.00 | 0.00 | 89 | 1013.1 |
| 20260905090329 | 24 | 360 | 1.6 | 4.8 | 0.00 | 0.00 | 0.00 | 89 | 1013.1 |
| 20260905090259 | 24 | 360 | 1.6 | 3.2 | 0.00 | 0.00 | 0.00 | 89 | 1013.1 |
| 20260905090037 | 24 | 360 | 1.6 | 1.6 | 0.00 | 0.00 | 0.00 | 89 | 1013.0 |
| 20260905085923 | 24 | 360 | 1.6 | 1.6 | 0.00 | 0.00 | 0.00 | 90 | 1013.1 |
| 20260905085830 | 24 | 360 | 1.6 | 1.6 | 0.00 | 0.00 | 0.00 | 90 | 1013.1 |
| 20260905085718 | 24 | 360 | 1.6 | 1.6 | 0.00 | 0.00 | 0.00 | 90 | 1013.1 |
| 20260905085646 | 24 | 360 | 1.6 | 1.6 | 0.00 | 0.00 | 0.00 | 90 | 1013.1 |
| 20260905085534 | 24 | 360 | 1.6 | 1.6 | 0.00 | 0.00 | 0.00 | 90 | 1013.1 |
| 20260905085444 | 24 | 360 | 0.0 | 1.6 | 0.00 | 0.00 | 0.00 | 90 | 1013.1 |
| 20260905085332 | 24 | 360 | 0.0 | 1.6 | 0.00 | 0.00 | 0.00 | 90 | 1013.1 |
| 20260905085219 | 24 | 360 | 0.0 | 0.0 | 0.00 | 0.00 | 0.00 | 90 | 1013.1 |
| 20260905085127 | 24 | 360 | 0.0 | 0.0 | 0.00 | 0.00 | 0.00 | 90 | 1013.1 |
| 20260905085033 | 24 | 360 | 0.0 | 0.0 | 0.00 | 0.00 | 0.00 | 90 | 1013.2 |
| 20260905084920 | 24 | 360 | 0.0 | 0.0 | 0.00 | 0.00 | 0.00 | 90 | 1013.2 |
| 20260905084831 | 24 | 360 | 0.0 | 0.0 | 0.00 | 0.00 | 0.00 | 90 | 1013.2 |
| 20260905084802 | 24 | 360 | 0.0 | 0.0 | 0.00 | 0.00 | 0.00 | 91 | 1013.2 |
| 20260905084535 | 24 | 360 | 0.0 | 0.0 | 0.00 | 0.00 | 0.00 | 91 | 1013.1 |
| 20260905084423 | 24 | 360 | 0.0 | 0.0 | 0.00 | 0.00 | 0.00 | 91 | 1013.1 |
| 20260905084333 | 24 | 360 | 0.0 | 0.0 | 0.00 | 0.00 | 0.00 | 90 | 1013.1 |
| 20260905084219 | 24 | 360 | 0.0 | 0.0 | 0.00 | 0.00 | 0.00 | 90 | 1013.1 |
| 20260905084126 | 24 | 360 | 0.0 | 0.0 | 0.00 | 0.00 | 0.00 | 90 | 1013.0 |
| 20260905084053 | 24 | 360 | 0.0 | 0.0 | 0.00 | 0.00 | 0.00 | 90 | 1013.1 |
| 20260905083918 | 24 | 360 | 0.0 | 0.0 | 0.00 | 0.00 | 0.00 | 90 | 1013.0 |
| 20260905083824 | 24 | 360 | 0.0 | 0.0 | 0.00 | 0.00 | 0.00 | 90 | 1013.0 |
| 20260905083736 | 24 | 360 | 0.0 | 0.0 | 0.00 | 0.00 | 0.00 | 89 | 1013.1 |
| 20260905083622 | 24 | 360 | 0.0 | 0.0 | 0.00 | 0.00 | 0.00 | 89 | 1013.1 |
| 20260905083530 | 24 | 360 | 0.0 | 0.0 | 0.00 | 0.00 | 0.00 | 89 | 1013.0 |
| 20260905083437 | 24 | 360 | 0.0 | 0.0 | 0.00 | 0.00 | 0.00 | 89 | 1013.1 |
| 20260905083323 | 24 | 360 | 0.0 | 0.0 | 0.00 | 0.00 | 0.00 | 89 | 1013.0 |
| 20260905083259 | 24 | 360 | 0.0 | 0.0 | 0.00 | 0.00 | 0.00 | 89 | 1013.0 |
| 20260905083052 | 24 | 360 | 0.0 | 0.0 | 0.00 | 0.00 | 0.00 | 89 | 1013.2 |
| 20260905082917 | 24 | 360 | 0.0 | 0.0 | 0.00 | 0.00 | 0.00 | 89 | 1013.1 |
| 20260905082825 | 24 | 360 | 0.0 | 0.0 | 0.00 | 0.00 | 0.00 | 89 | 1013.2 |
| 20260905082734 | 24 | 360 | 0.0 | 0.0 | 0.00 | 0.00 | 0.00 | 89 | 1013.1 |
| 20260905082626 | 24 | 360 | 0.0 | 0.0 | 0.00 | 0.00 | 0.00 | 89 | 1013.2 |
| 20260905082533 | 24 | 360 | 0.0 | 0.0 | 0.00 | 0.00 | 0.00 | 90 | 1013.1 |
| 20260905082420 | 24 | 360 | 0.0 | 0.0 | 0.00 | 0.00 | 0.00 | 90 | 1013.1 |
| 20260905082347 | 24 | 360 | 0.0 | 0.0 | 0.00 | 0.00 | 0.00 | 90 | 1013.1 |
| 20260905082233 | 24 | 360 | 0.0 | 0.0 | 0.00 | 0.00 | 0.00 | 90 | 1013.1 |
| 20260905082139 | 24 | 360 | 0.0 | 0.0 | 0.00 | 0.00 | 0.00 | 90 | 1013.1 |
| 20260905082026 | 24 | 360 | 0.0 | 0.0 | 0.00 | 0.00 | 0.00 | 90 | 1013.1 |
| 20260905081958 | 24 | 360 | 0.0 | 0.0 | 0.00 | 0.00 | 0.00 | 90 | 1013.1 |
| 20260905081844 | 24 | 360 | 0.0 | 1.6 | 0.00 | 0.00 | 0.00 | 90 | 1013.0 |
| 20260905081754 | 24 | 360 | 0.0 | 3.2 | 0.00 | 0.00 | 0.00 | 90 | 1013.0 |
| 20260905081528 | 24 | 360 | 0.0 | 3.2 | 0.00 | 0.00 | 0.00 | 90 | 1013.1 |
| 20260905081434 | 24 | 360 | 0.0 | 3.2 | 0.00 | 0.00 | 0.00 | 89 | 1012.9 |
| 20260905081326 | 24 | 360 | 0.0 | 3.2 | 0.00 | 0.00 | 0.00 | 89 | 1013.0 |
| 20260905081233 | 24 | 360 | 0.0 | 4.8 | 0.00 | 0.00 | 0.00 | 89 | 1013.1 |
| 20260905081119 | 24 | 360 | 0.0 | 4.8 | 0.00 | 0.00 | 0.00 | 89 | 1013.0 |
| 20260905081027 | 24 | 360 | 1.6 | 4.8 | 0.00 | 0.00 | 0.00 | 89 | 1013.0 |
| 20260905080933 | 24 | 360 | 3.2 | 4.8 | 0.00 | 0.00 | 0.00 | 88 | 1013.0 |
| 20260905080825 | 24 | 360 | 1.6 | 4.8 | 0.00 | 0.00 | 0.00 | 88 | 1013.0 |
| 20260905080733 | 24 | 360 | 3.2 | 4.8 | 0.00 | 0.00 | 0.00 | 88 | 1013.0 |
| 20260905080620 | 24 | 360 | 3.2 | 4.8 | 0.00 | 0.00 | 0.00 | 88 | 1013.0 |
| 20260905080526 | 24 | 360 | 3.2 | 4.8 | 0.00 | 0.00 | 0.00 | 88 | 1013.0 |
| 20260905080434 | 24 | 360 | 3.2 | 4.8 | 0.00 | 0.00 | 0.00 | 88 | 1013.0 |
| 20260905080341 | 24 | 360 | 3.2 | 4.8 | 0.00 | 0.00 | 0.00 | 88 | 1013.1 |
| 20260905080254 | 24 | 360 | 3.2 | 4.8 | 0.00 | 0.00 | 0.00 | 88 | 1013.1 |
| 20260905080026 | 24 | 360 | 3.2 | 4.8 | 0.00 | 0.00 | 0.00 | 88 | 1012.9 |
| 20260905075952 | 24 | 360 | 3.2 | 4.8 | 0.00 | 0.00 | 0.00 | 88 | 1012.9 |
| 20260905075817 | 24 | 360 | 3.2 | 4.8 | 0.00 | 0.00 | 0.00 | 88 | 1012.9 |
| 20260905075725 | 24 | 360 | 1.6 | 3.2 | 0.00 | 0.00 | 0.00 | 89 | 1012.9 |
| 20260905075636 | 24 | 360 | 3.2 | 3.2 | 0.00 | 0.00 | 0.00 | 88 | 1013.0 |
| 20260905075523 | 24 | 360 | 3.2 | 3.2 | 0.00 | 0.00 | 0.00 | 88 | 1012.9 |
| 20260905075430 | 24 | 360 | 1.6 | 3.2 | 0.00 | 0.00 | 0.00 | 88 | 1012.8 |
| 20260905075357 | 24 | 360 | 1.6 | 3.2 | 0.00 | 0.00 | 0.00 | 88 | 1012.8 |
| 20260905075242 | 24 | 360 | 1.6 | 3.2 | 0.00 | 0.00 | 0.00 | 88 | 1012.8 |
| 20260905075149 | 24 | 360 | 1.6 | 3.2 | 0.00 | 0.00 | 0.00 | 88 | 1012.8 |
| 20260905075034 | 24 | 360 | 1.6 | 1.6 | 0.00 | 0.00 | 0.00 | 88 | 1012.8 |
| 20260905074924 | 24 | 360 | 0.0 | 1.6 | 0.00 | 0.00 | 0.00 | 88 | 1012.8 |
| 20260905074852 | 24 | 360 | 0.0 | 0.0 | 0.00 | 0.00 | 0.00 | 88 | 1012.8 |
| 20260905074822 | 24 | 360 | 0.0 | 0.0 | 0.00 | 0.00 | 0.00 | 89 | 1012.8 |
| 20260905074555 | 24 | 360 | 0.0 | 0.0 | 0.00 | 0.00 | 0.00 | 89 | 1012.8 |
| 20260905074420 | 24 | 360 | 0.0 | 0.0 | 0.00 | 0.00 | 0.00 | 89 | 1012.8 |
| 20260905074326 | 24 | 360 | 0.0 | 0.0 | 0.00 | 0.00 | 0.00 | 89 | 1012.8 |
| 20260905074236 | 24 | 360 | 0.0 | 0.0 | 0.00 | 0.00 | 0.00 | 89 | 1012.8 |
| 20260905074123 | 24 | 360 | 0.0 | 0.0 | 0.00 | 0.00 | 0.00 | 89 | 1012.8 |
| 20260905074031 | 24 | 360 | 0.0 | 0.0 | 0.00 | 0.00 | 0.00 | 88 | 1012.8 |
| 20260905073917 | 24 | 360 | 0.0 | 1.6 | 0.00 | 0.00 | 0.00 | 88 | 1012.8 |
| 20260905073823 | 24 | 360 | 0.0 | 1.6 | 0.00 | 0.00 | 0.00 | 88 | 1012.7 |
| 20260905073751 | 24 | 360 | 0.0 | 1.6 | 0.00 | 0.00 | 0.00 | 88 | 1012.8 |
| 20260905073622 | 24 | 360 | 0.0 | 1.6 | 0.00 | 0.00 | 0.00 | 88 | 1012.8 |
| 20260905073530 | 24 | 360 | 0.0 | 1.6 | 0.00 | 0.00 | 0.00 | 88 | 1012.9 |
| 20260905073436 | 24 | 360 | 0.0 | 1.6 | 0.00 | 0.00 | 0.00 | 88 | 1012.8 |
| 20260905073342 | 24 | 360 | 0.0 | 1.6 | 0.00 | 0.00 | 0.00 | 87 | 1012.9 |
| 20260905073318 | 24 | 360 | 0.0 | 3.2 | 0.00 | 0.00 | 0.00 | 87 | 1012.9 |
| 20260905073029 | 24 | 360 | 0.0 | 3.2 | 0.00 | 0.00 | 0.00 | 87 | 1012.8 |
| 20260905072936 | 25 | 360 | 1.6 | 3.2 | 0.00 | 0.00 | 0.00 | 88 | 1012.9 |
| 20260905072823 | 25 | 360 | 1.6 | 3.2 | 0.00 | 0.00 | 0.00 | 88 | 1012.9 |
| 20260905072750 | 25 | 360 | 1.6 | 3.2 | 0.00 | 0.00 | 0.00 | 88 | 1012.9 |
| 20260905072637 | 25 | 360 | 1.6 | 3.2 | 0.00 | 0.00 | 0.00 | 88 | 1012.9 |
| 20260905072527 | 25 | 360 | 1.6 | 3.2 | 0.00 | 0.00 | 0.00 | 88 | 1012.8 |
| 20260905072433 | 25 | 360 | 1.6 | 3.2 | 0.00 | 0.00 | 0.00 | 88 | 1012.9 |
| 20260905072320 | 25 | 360 | 1.6 | 3.2 | 0.00 | 0.00 | 0.00 | 88 | 1012.9 |
| 20260905072229 | 25 | 360 | 1.6 | 3.2 | 0.00 | 0.00 | 0.00 | 88 | 1012.8 |
| 20260905072137 | 25 | 360 | 1.6 | 3.2 | 0.00 | 0.00 | 0.00 | 88 | 1012.9 |
| 20260905072023 | 25 | 360 | 1.6 | 3.2 | 0.00 | 0.00 | 0.00 | 88 | 1012.9 |
| 20260905071933 | 25 | 360 | 1.6 | 3.2 | 0.00 | 0.00 | 0.00 | 88 | 1012.9 |
| 20260905071811 | 25 | 360 | 1.6 | 3.2 | 0.00 | 0.00 | 0.00 | 88 | 1012.9 |
| 20260905071524 | 25 | 360 | 1.6 | 3.2 | 0.00 | 0.00 | 0.00 | 88 | 1012.8 |
| 20260905071435 | 25 | 360 | 1.6 | 3.2 | 0.00 | 0.00 | 0.00 | 88 | 1012.9 |
| 20260905071343 | 25 | 360 | 1.6 | 3.2 | 0.00 | 0.00 | 0.00 | 88 | 1012.9 |
| 20260905071250 | 25 | 360 | 1.6 | 3.2 | 0.00 | 0.00 | 0.00 | 87 | 1012.9 |
| 20260905071136 | 25 | 360 | 1.6 | 3.2 | 0.00 | 0.00 | 0.00 | 87 | 1012.9 |
| 20260905071023 | 25 | 360 | 1.6 | 3.2 | 0.00 | 0.00 | 0.00 | 87 | 1012.9 |
| 20260905070949 | 25 | 360 | 1.6 | 3.2 | 0.00 | 0.00 | 0.00 | 87 | 1013.0 |
| 20260905070835 | 25 | 360 | 1.6 | 3.2 | 0.00 | 0.00 | 0.00 | 87 | 1013.1 |
| 20260905070725 | 25 | 360 | 1.6 | 4.8 | 0.00 | 0.00 | 0.00 | 87 | 1013.0 |
| 20260905070631 | 25 | 360 | 1.6 | 4.8 | 0.00 | 0.00 | 0.00 | 87 | 1013.1 |
| 20260905070536 | 25 | 360 | 1.6 | 4.8 | 0.00 | 0.00 | 0.00 | 87 | 1013.1 |
| 20260905070443 | 25 | 360 | 1.6 | 4.8 | 0.00 | 0.00 | 0.00 | 87 | 1013.2 |
| 20260905070349 | 25 | 360 | 1.6 | 4.8 | 0.00 | 0.00 | 0.00 | 87 | 1013.2 |
| 20260905070259 | 25 | 360 | 1.6 | 4.8 | 0.00 | 0.00 | 0.00 | 86 | 1013.2 |
| 20260905070036 | 25 | 360 | 3.2 | 4.8 | 0.00 | 0.00 | 0.00 | 86 | 1013.3 |
| 20260905065923 | 25 | 360 | 3.2 | 4.8 | 0.00 | 0.00 | 0.00 | 86 | 1013.3 |
| 20260905065850 | 25 | 360 | 3.2 | 4.8 | 0.00 | 0.00 | 0.00 | 86 | 1013.3 |
| 20260905065736 | 25 | 360 | 3.2 | 4.8 | 0.00 | 0.00 | 0.00 | 86 | 1013.2 |
| 20260905065622 | 25 | 360 | 3.2 | 4.8 | 0.00 | 0.00 | 0.00 | 86 | 1013.2 |
| 20260905065529 | 25 | 360 | 1.6 | 3.2 | 0.00 | 0.00 | 0.00 | 86 | 1013.2 |
| 20260905065419 | 25 | 360 | 1.6 | 3.2 | 0.00 | 0.00 | 0.00 | 86 | 1013.2 |
| 20260905065346 | 25 | 360 | 0.0 | 3.2 | 0.00 | 0.00 | 0.00 | 85 | 1013.2 |
| 20260905065231 | 25 | 360 | 0.0 | 3.2 | 0.00 | 0.00 | 0.00 | 85 | 1013.2 |
| 20260905065137 | 25 | 360 | 0.0 | 3.2 | 0.00 | 0.00 | 0.00 | 85 | 1013.3 |
| 20260905065025 | 25 | 360 | 0.0 | 3.2 | 0.00 | 0.00 | 0.00 | 85 | 1013.3 |
| 20260905064932 | 25 | 360 | 1.6 | 3.2 | 0.00 | 0.00 | 0.00 | 85 | 1013.4 |
| 20260905064823 | 25 | 360 | 1.6 | 4.8 | 0.00 | 0.00 | 0.00 | 85 | 1013.4 |
| 20260905064754 | 25 | 360 | 1.6 | 4.8 | 0.00 | 0.00 | 0.00 | 85 | 1013.4 |
| 20260905064525 | 25 | 360 | 1.6 | 4.8 | 0.00 | 0.00 | 0.00 | 85 | 1013.5 |
| 20260905064434 | 25 | 360 | 1.6 | 4.8 | 0.00 | 0.00 | 0.00 | 85 | 1013.5 |
| 20260905064325 | 25 | 360 | 1.6 | 4.8 | 0.00 | 0.00 | 0.00 | 84 | 1013.4 |
| 20260905064232 | 25 | 360 | 1.6 | 4.8 | 0.00 | 0.00 | 0.00 | 84 | 1013.5 |
| 20260905064119 | 25 | 360 | 3.2 | 4.8 | 0.00 | 0.00 | 0.00 | 84 | 1013.4 |
| 20260905064025 | 25 | 360 | 3.2 | 4.8 | 0.00 | 0.00 | 0.00 | 84 | 1013.4 |
| 20260905063932 | 25 | 360 | 1.6 | 4.8 | 0.00 | 0.00 | 0.00 | 84 | 1013.4 |
| 20260905063823 | 25 | 360 | 1.6 | 4.8 | 0.00 | 0.00 | 0.00 | 85 | 1013.5 |
| 20260905063751 | 25 | 360 | 1.6 | 4.8 | 0.00 | 0.00 | 0.00 | 85 | 1013.4 |
| 20260905063634 | 25 | 360 | 1.6 | 4.8 | 0.00 | 0.00 | 0.00 | 85 | 1013.5 |
| 20260905063523 | 25 | 355 | 1.6 | 4.8 | 0.00 | 0.00 | 0.00 | 85 | 1013.4 |
| 20260905063450 | 25 | 355 | 3.2 | 4.8 | 0.00 | 0.00 | 0.00 | 85 | 1013.5 |
| 20260905063335 | 25 | 355 | 3.2 | 4.8 | 0.00 | 0.00 | 0.00 | 85 | 1013.5 |
| 20260905063310 | 25 | 355 | 3.2 | 4.8 | 0.00 | 0.00 | 0.00 | 85 | 1013.5 |
| 20260905063043 | 25 | 42 | 3.2 | 4.8 | 0.00 | 0.00 | 0.00 | 85 | 1013.5 |
| 20260905062929 | 25 | 42 | 3.2 | 4.8 | 0.00 | 0.00 | 0.00 | 86 | 1013.5 |
| 20260905062837 | 25 | 42 | 3.2 | 3.2 | 0.00 | 0.00 | 0.00 | 86 | 1013.5 |
| 20260905062723 | 25 | 42 | 1.6 | 3.2 | 0.00 | 0.00 | 0.00 | 86 | 1013.6 |
| 20260905062630 | 25 | 42 | 1.6 | 3.2 | 0.00 | 0.00 | 0.00 | 86 | 1013.5 |
| 20260905062521 | 25 | 42 | 1.6 | 4.8 | 0.00 | 0.00 | 0.00 | 86 | 1013.5 |
| 20260905062428 | 25 | 42 | 1.6 | 4.8 | 0.00 | 0.00 | 0.00 | 86 | 1013.6 |
| 20260905062335 | 25 | 42 | 1.6 | 4.8 | 0.00 | 0.00 | 0.00 | 86 | 1013.5 |
| 20260905062222 | 25 | 42 | 1.6 | 4.8 | 0.00 | 0.00 | 0.00 | 86 | 1013.5 |
| 20260905062130 | 25 | 42 | 1.6 | 4.8 | 0.00 | 0.00 | 0.00 | 86 | 1013.5 |
| 20260905062021 | 25 | 42 | 1.6 | 4.8 | 0.00 | 0.00 | 0.00 | 86 | 1013.5 |
| 20260905061929 | 25 | 42 | 1.6 | 4.8 | 0.00 | 0.00 | 0.00 | 86 | 1013.6 |
| 20260905061857 | 25 | 42 | 3.2 | 4.8 | 0.00 | 0.00 | 0.00 | 86 | 1013.5 |
| 20260905061807 | 25 | 42 | 3.2 | 4.8 | 0.00 | 0.00 | 0.00 | 85 | 1013.5 |
| 20260905061519 | 25 | 48 | 1.6 | 4.8 | 0.00 | 0.00 | 0.00 | 85 | 1013.6 |
| 20260905061431 | 25 | 360 | 1.6 | 4.8 | 0.00 | 0.00 | 0.00 | 85 | 1013.6 |
| 20260905061320 | 25 | 360 | 3.2 | 4.8 | 0.00 | 0.00 | 0.00 | 85 | 1013.6 |
| 20260905061226 | 25 | 5 | 3.2 | 4.8 | 0.00 | 0.00 | 0.00 | 85 | 1013.6 |
| 20260905061134 | 25 | 9 | 3.2 | 4.8 | 0.00 | 0.00 | 0.00 | 85 | 1013.6 |
| 20260905061020 | 25 | 9 | 3.2 | 4.8 | 0.00 | 0.00 | 0.00 | 86 | 1013.7 |
| 20260905060927 | 25 | 9 | 3.2 | 4.8 | 0.00 | 0.00 | 0.00 | 86 | 1013.6 |
| 20260905060819 | 25 | 9 | 3.2 | 4.8 | 0.00 | 0.00 | 0.00 | 86 | 1013.7 |
| 20260905060726 | 25 | 9 | 3.2 | 4.8 | 0.00 | 0.00 | 0.00 | 86 | 1013.6 |
| 20260905060633 | 25 | 13 | 3.2 | 4.8 | 0.00 | 0.00 | 0.00 | 85 | 1013.7 |
| 20260905060520 | 25 | 24 | 3.2 | 4.8 | 0.00 | 0.00 | 0.00 | 86 | 1013.7 |
| 20260905060427 | 25 | 17 | 3.2 | 4.8 | 0.00 | 0.00 | 0.00 | 86 | 1013.7 |
| 20260905060339 | 25 | 17 | 3.2 | 4.8 | 0.00 | 0.00 | 0.00 | 86 | 1013.6 |
| 20260905060309 | 25 | 17 | 3.2 | 4.8 | 0.00 | 0.00 | 0.00 | 85 | 1013.6 |
| 20260905060024 | 25 | 17 | 3.2 | 4.8 | 0.00 | 0.00 | 0.00 | 85 | 1013.7 |
| 20260905055932 | 25 | 17 | 3.2 | 4.8 | 0.00 | 0.00 | 0.00 | 85 | 1013.7 |
| 20260905055821 | 25 | 17 | 3.2 | 4.8 | 0.00 | 0.00 | 0.00 | 85 | 1013.7 |
| 20260905055730 | 25 | 17 | 3.2 | 4.8 | 0.00 | 0.00 | 0.00 | 85 | 1013.7 |
| 20260905055636 | 25 | 17 | 1.6 | 4.8 | 0.00 | 0.00 | 0.00 | 84 | 1013.7 |
| 20260905055544 | 25 | 17 | 1.6 | 4.8 | 0.00 | 0.00 | 0.00 | 84 | 1013.7 |
| 20260905055429 | 25 | 17 | 1.6 | 4.8 | 0.00 | 0.00 | 0.00 | 84 | 1013.7 |
| 20260905055357 | 25 | 17 | 1.6 | 4.8 | 0.00 | 0.00 | 0.00 | 85 | 1013.7 |
| 20260905055243 | 25 | 17 | 1.6 | 4.8 | 0.00 | 0.00 | 0.00 | 85 | 1013.6 |
| 20260905055128 | 25 | 17 | 3.2 | 4.8 | 0.00 | 0.00 | 0.00 | 85 | 1013.6 |
| 20260905055019 | 25 | 17 | 3.2 | 4.8 | 0.00 | 0.00 | 0.00 | 85 | 1013.7 |
| 20260905054925 | 25 | 17 | 3.2 | 4.8 | 0.00 | 0.00 | 0.00 | 85 | 1013.6 |
| 20260905054852 | 25 | 17 | 3.2 | 4.8 | 0.00 | 0.00 | 0.00 | 85 | 1013.6 |
| 20260905054821 | 25 | 17 | 3.2 | 4.8 | 0.00 | 0.00 | 0.00 | 85 | 1013.6 |
| 20260905054533 | 25 | 17 | 3.2 | 4.8 | 0.00 | 0.00 | 0.00 | 85 | 1013.8 |
| 20260905054424 | 25 | 17 | 3.2 | 4.8 | 0.00 | 0.00 | 0.00 | 85 | 1013.8 |
| 20260905054332 | 25 | 17 | 1.6 | 4.8 | 0.00 | 0.00 | 0.00 | 85 | 1013.7 |
| 20260905054239 | 25 | 17 | 1.6 | 6.4 | 0.00 | 0.00 | 0.00 | 85 | 1013.7 |
| 20260905054125 | 25 | 17 | 1.6 | 6.4 | 0.00 | 0.00 | 0.00 | 85 | 1013.7 |
| 20260905054053 | 25 | 17 | 1.6 | 6.4 | 0.00 | 0.00 | 0.00 | 85 | 1013.7 |
| 20260905053939 | 25 | 17 | 1.6 | 6.4 | 0.00 | 0.00 | 0.00 | 85 | 1013.8 |
| 20260905053825 | 25 | 17 | 3.2 | 6.4 | 0.00 | 0.00 | 0.00 | 85 | 1013.7 |
| 20260905053735 | 25 | 17 | 3.2 | 6.4 | 0.00 | 0.00 | 0.00 | 85 | 1013.7 |
| 20260905053622 | 25 | 17 | 3.2 | 6.4 | 0.00 | 0.00 | 0.00 | 85 | 1013.6 |
| 20260905053529 | 25 | 17 | 4.8 | 6.4 | 0.00 | 0.00 | 0.00 | 85 | 1013.5 |
| 20260905053436 | 25 | 17 | 4.8 | 6.4 | 0.00 | 0.00 | 0.00 | 84 | 1013.7 |
| 20260905053344 | 25 | 17 | 3.2 | 4.8 | 0.00 | 0.00 | 0.00 | 83 | 1013.6 |
| 20260905053257 | 25 | 17 | 3.2 | 4.8 | 0.00 | 0.00 | 0.00 | 83 | 1013.6 |
| 20260905053031 | 25 | 17 | 3.2 | 4.8 | 0.00 | 0.00 | 0.00 | 83 | 1013.5 |
| 20260905052937 | 25 | 17 | 3.2 | 4.8 | 0.00 | 0.00 | 0.00 | 84 | 1013.5 |
| 20260905052824 | 25 | 17 | 3.2 | 3.2 | 0.00 | 0.00 | 0.00 | 84 | 1013.7 |
| 20260905052752 | 25 | 17 | 1.6 | 3.2 | 0.00 | 0.00 | 0.00 | 84 | 1013.6 |
| 20260905052620 | 25 | 17 | 0.0 | 3.2 | 0.00 | 0.00 | 0.00 | 84 | 1013.6 |
| 20260905052527 | 25 | 17 | 0.0 | 3.2 | 0.00 | 0.00 | 0.00 | 84 | 1013.6 |
| 20260905052433 | 25 | 17 | 0.0 | 3.2 | 0.00 | 0.00 | 0.00 | 84 | 1013.5 |
| 20260905052319 | 25 | 17 | 0.0 | 3.2 | 0.00 | 0.00 | 0.00 | 84 | 1013.7 |
| 20260905052226 | 25 | 17 | 1.6 | 3.2 | 0.00 | 0.00 | 0.00 | 84 | 1013.5 |
| 20260905052133 | 25 | 17 | 1.6 | 3.2 | 0.00 | 0.00 | 0.00 | 84 | 1013.5 |
| 20260905052022 | 25 | 17 | 0.0 | 3.2 | 0.00 | 0.00 | 0.00 | 84 | 1013.5 |
| 20260905051930 | 25 | 17 | 0.0 | 1.6 | 0.00 | 0.00 | 0.00 | 84 | 1013.5 |
| 20260905051828 | 25 | 17 | 0.0 | 1.6 | 0.00 | 0.00 | 0.00 | 84 | 1013.5 |
| 20260905051540 | 25 | 17 | 0.0 | 1.6 | 0.00 | 0.00 | 0.00 | 84 | 1013.5 |
| 20260905051446 | 25 | 17 | 0.0 | 1.6 | 0.00 | 0.00 | 0.00 | 84 | 1013.6 |
| 20260905051336 | 25 | 17 | 0.0 | 1.6 | 0.00 | 0.00 | 0.00 | 84 | 1013.5 |
| 20260905051243 | 25 | 17 | 0.0 | 1.6 | 0.00 | 0.00 | 0.00 | 84 | 1013.7 |
| 20260905051130 | 25 | 17 | 0.0 | 0.0 | 0.00 | 0.00 | 0.00 | 84 | 1013.7 |
| 20260905051019 | 25 | 17 | 0.0 | 0.0 | 0.00 | 0.00 | 0.00 | 85 | 1013.7 |
| 20260905050925 | 25 | 17 | 0.0 | 1.6 | 0.00 | 0.00 | 0.00 | 84 | 1013.7 |
| 20260905050853 | 25 | 17 | 0.0 | 1.6 | 0.00 | 0.00 | 0.00 | 85 | 1013.7 |
| 20260905050721 | 25 | 17 | 0.0 | 1.6 | 0.00 | 0.00 | 0.00 | 85 | 1013.7 |
| 20260905050628 | 25 | 17 | 0.0 | 1.6 | 0.00 | 0.00 | 0.00 | 85 | 1013.6 |
| 20260905050535 | 25 | 17 | 0.0 | 1.6 | 0.00 | 0.00 | 0.00 | 85 | 1013.7 |
| 20260905050421 | 25 | 17 | 0.0 | 3.2 | 0.00 | 0.00 | 0.00 | 84 | 1013.6 |
| 20260905050323 | 25 | 17 | 0.0 | 3.2 | 0.00 | 0.00 | 0.00 | 84 | 1013.7 |
| 20260905050036 | 25 | 17 | 0.0 | 3.2 | 0.00 | 0.00 | 0.00 | 85 | 1013.7 |
| 20260905045923 | 25 | 17 | 0.0 | 4.8 | 0.00 | 0.00 | 0.00 | 85 | 1013.7 |
| 20260905045831 | 25 | 17 | 0.0 | 4.8 | 0.00 | 0.00 | 0.00 | 85 | 1013.8 |
| 20260905045718 | 25 | 17 | 1.6 | 4.8 | 0.00 | 0.00 | 0.00 | 85 | 1013.8 |
| 20260905045630 | 25 | 17 | 1.6 | 4.8 | 0.00 | 0.00 | 0.00 | 85 | 1013.8 |
| 20260905045537 | 25 | 17 | 1.6 | 4.8 | 0.00 | 0.00 | 0.00 | 85 | 1013.8 |
| 20260905045424 | 25 | 17 | 1.6 | 4.8 | 0.00 | 0.00 | 0.00 | 84 | 1013.7 |
| 20260905045332 | 25 | 17 | 1.6 | 4.8 | 0.00 | 0.00 | 0.00 | 84 | 1013.7 |
| 20260905045219 | 25 | 17 | 1.6 | 4.8 | 0.00 | 0.00 | 0.00 | 84 | 1013.7 |
| 20260905045127 | 25 | 17 | 1.6 | 4.8 | 0.00 | 0.00 | 0.00 | 84 | 1013.7 |
| 20260905045058 | 25 | 17 | 3.2 | 4.8 | 0.00 | 0.00 | 0.00 | 84 | 1013.8 |
| 20260905044924 | 25 | 17 | 3.2 | 4.8 | 0.00 | 0.00 | 0.00 | 84 | 1013.8 |
| 20260905044851 | 25 | 17 | 3.2 | 4.8 | 0.00 | 0.00 | 0.00 | 84 | 1013.8 |
| 20260905044800 | 25 | 17 | 3.2 | 4.8 | 0.00 | 0.00 | 0.00 | 84 | 1013.8 |
| 20260905044532 | 25 | 17 | 3.2 | 4.8 | 0.00 | 0.00 | 0.00 | 84 | 1013.7 |
| 20260905044423 | 25 | 17 | 3.2 | 4.8 | 0.00 | 0.00 | 0.00 | 84 | 1013.7 |
| 20260905044329 | 25 | 17 | 3.2 | 4.8 | 0.00 | 0.00 | 0.00 | 83 | 1013.8 |
| 20260905044236 | 25 | 17 | 3.2 | 4.8 | 0.00 | 0.00 | 0.00 | 82 | 1013.8 |
| 20260905044121 | 25 | 17 | 3.2 | 4.8 | 0.00 | 0.00 | 0.00 | 82 | 1013.8 |
| 20260905044029 | 25 | 17 | 3.2 | 4.8 | 0.00 | 0.00 | 0.00 | 83 | 1013.8 |
| 20260905043919 | 25 | 17 | 3.2 | 4.8 | 0.00 | 0.00 | 0.00 | 82 | 1013.7 |
| 20260905043827 | 25 | 17 | 3.2 | 4.8 | 0.00 | 0.00 | 0.00 | 82 | 1013.7 |
| 20260905043733 | 25 | 17 | 1.6 | 3.2 | 0.00 | 0.00 | 0.00 | 82 | 1013.7 |
| 20260905043619 | 25 | 17 | 1.6 | 3.2 | 0.00 | 0.00 | 0.00 | 83 | 1013.7 |
| 20260905043547 | 26 | 17 | 1.6 | 3.2 | 0.00 | 0.00 | 0.00 | 83 | 1013.7 |
| 20260905043433 | 26 | 17 | 1.6 | 3.2 | 0.00 | 0.00 | 0.00 | 84 | 1013.7 |
| 20260905043323 | 26 | 17 | 1.6 | 3.2 | 0.00 | 0.00 | 0.00 | 84 | 1013.8 |
| 20260905043255 | 26 | 17 | 1.6 | 3.2 | 0.00 | 0.00 | 0.00 | 84 | 1013.8 |
| 20260905043028 | 26 | 17 | 1.6 | 3.2 | 0.00 | 0.00 | 0.00 | 83 | 1013.9 |
| 20260905042934 | 26 | 17 | 1.6 | 3.2 | 0.00 | 0.00 | 0.00 | 83 | 1013.9 |
| 20260905042822 | 26 | 17 | 1.6 | 3.2 | 0.00 | 0.00 | 0.00 | 83 | 1013.8 |
| 20260905042734 | 26 | 17 | 3.2 | 3.2 | 0.00 | 0.00 | 0.00 | 82 | 1013.9 |
| 20260905042641 | 26 | 17 | 1.6 | 3.2 | 0.00 | 0.00 | 0.00 | 82 | 1013.8 |
| 20260905042526 | 26 | 17 | 0.0 | 1.6 | 0.00 | 0.00 | 0.00 | 82 | 1013.8 |
| 20260905042432 | 26 | 17 | 0.0 | 0.0 | 0.00 | 0.00 | 0.00 | 84 | 1013.9 |
| 20260905042319 | 26 | 17 | 0.0 | 0.0 | 0.00 | 0.00 | 0.00 | 84 | 1013.8 |
| 20260905042226 | 26 | 17 | 0.0 | 0.0 | 0.00 | 0.00 | 0.00 | 83 | 1013.8 |
| 20260905042137 | 26 | 17 | 0.0 | 0.0 | 0.00 | 0.00 | 0.00 | 84 | 1013.9 |
| 20260905042044 | 26 | 17 | 0.0 | 0.0 | 0.00 | 0.00 | 0.00 | 84 | 1013.9 |
| 20260905041930 | 26 | 17 | 0.0 | 0.0 | 0.00 | 0.00 | 0.00 | 84 | 1013.8 |
| 20260905041837 | 26 | 17 | 0.0 | 0.0 | 0.00 | 0.00 | 0.00 | 84 | 1013.8 |
| 20260905041751 | 26 | 17 | 0.0 | 0.0 | 0.00 | 0.00 | 0.00 | 84 | 1013.9 |
| 20260905041524 | 26 | 17 | 0.0 | 0.0 | 0.00 | 0.00 | 0.00 | 84 | 1013.8 |
| 20260905041431 | 26 | 17 | 0.0 | 0.0 | 0.00 | 0.00 | 0.00 | 84 | 1013.8 |
| 20260905041338 | 26 | 17 | 0.0 | 0.0 | 0.00 | 0.00 | 0.00 | 84 | 1013.8 |
| 20260905041225 | 26 | 17 | 0.0 | 0.0 | 0.00 | 0.00 | 0.00 | 84 | 1013.8 |
| 20260905041132 | 26 | 17 | 0.0 | 0.0 | 0.00 | 0.00 | 0.00 | 84 | 1013.8 |
| 20260905041022 | 26 | 17 | 0.0 | 0.0 | 0.00 | 0.00 | 0.00 | 84 | 1013.7 |
| 20260905040930 | 26 | 17 | 0.0 | 0.0 | 0.00 | 0.00 | 0.00 | 83 | 1013.8 |
| 20260905040837 | 26 | 17 | 0.0 | 0.0 | 0.00 | 0.00 | 0.00 | 84 | 1013.8 |
| 20260905040724 | 26 | 17 | 0.0 | 0.0 | 0.00 | 0.00 | 0.00 | 84 | 1013.8 |
| 20260905040630 | 26 | 17 | 0.0 | 0.0 | 0.00 | 0.00 | 0.00 | 84 | 1013.8 |
| 20260905040536 | 26 | 17 | 0.0 | 1.6 | 0.00 | 0.00 | 0.00 | 84 | 1013.8 |
| 20260905040426 | 26 | 17 | 0.0 | 1.6 | 0.00 | 0.00 | 0.00 | 84 | 1013.9 |
| 20260905040305 | 26 | 17 | 0.0 | 3.2 | 0.00 | 0.00 | 0.00 | 84 | 1013.8 |
| 20260905040057 | 26 | 17 | 0.0 | 3.2 | 0.00 | 0.00 | 0.00 | 84 | 1013.8 |
| 20260905035924 | 26 | 17 | 0.0 | 3.2 | 0.00 | 0.00 | 0.00 | 84 | 1013.8 |
| 20260905035834 | 26 | 17 | 0.0 | 3.2 | 0.00 | 0.00 | 0.00 | 83 | 1013.9 |
| 20260905035722 | 26 | 17 | 1.6 | 3.2 | 0.00 | 0.00 | 0.00 | 83 | 1013.9 |
| 20260905035629 | 26 | 17 | 1.6 | 3.2 | 0.00 | 0.00 | 0.00 | 83 | 1013.9 |
| 20260905035534 | 26 | 17 | 1.6 | 3.2 | 0.00 | 0.00 | 0.00 | 83 | 1013.9 |
| 20260905035423 | 26 | 17 | 1.6 | 3.2 | 0.00 | 0.00 | 0.00 | 83 | 1013.9 |
| 20260905035333 | 26 | 17 | 1.6 | 3.2 | 0.00 | 0.00 | 0.00 | 83 | 1013.9 |
| 20260905035241 | 26 | 17 | 1.6 | 3.2 | 0.00 | 0.00 | 0.00 | 83 | 1013.8 |
| 20260905035127 | 26 | 17 | 1.6 | 3.2 | 0.00 | 0.00 | 0.00 | 83 | 1013.8 |
| 20260905035035 | 26 | 17 | 1.6 | 3.2 | 0.00 | 0.00 | 0.00 | 83 | 1013.9 |
| 20260905034942 | 26 | 17 | 0.0 | 1.6 | 0.00 | 0.00 | 0.00 | 83 | 1014.0 |
| 20260905034828 | 26 | 17 | 0.0 | 1.6 | 0.00 | 0.00 | 0.00 | 84 | 1013.9 |
| 20260905034803 | 26 | 17 | 0.0 | 0.0 | 0.00 | 0.00 | 0.00 | 84 | 1013.9 |
| 20260905034536 | 26 | 17 | 0.0 | 0.0 | 0.00 | 0.00 | 0.00 | 84 | 1013.9 |
| 20260905034421 | 26 | 17 | 0.0 | 0.0 | 0.00 | 0.00 | 0.00 | 84 | 1013.9 |
| 20260905034328 | 26 | 17 | 0.0 | 0.0 | 0.00 | 0.00 | 0.00 | 84 | 1013.9 |
| 20260905034235 | 26 | 17 | 0.0 | 0.0 | 0.00 | 0.00 | 0.00 | 83 | 1013.9 |
| 20260905034143 | 26 | 17 | 0.0 | 0.0 | 0.00 | 0.00 | 0.00 | 83 | 1014.0 |
| 20260905034034 | 26 | 17 | 0.0 | 0.0 | 0.00 | 0.00 | 0.00 | 83 | 1014.0 |
| 20260905033919 | 26 | 17 | 0.0 | 3.2 | 0.00 | 0.00 | 0.00 | 83 | 1014.0 |
| 20260905033825 | 26 | 17 | 0.0 | 3.2 | 0.00 | 0.00 | 0.00 | 83 | 1013.9 |
| 20260905033732 | 26 | 17 | 0.0 | 3.2 | 0.00 | 0.00 | 0.00 | 83 | 1014.0 |
| 20260905033620 | 26 | 17 | 0.0 | 3.2 | 0.00 | 0.00 | 0.00 | 83 | 1014.0 |
| 20260905033531 | 26 | 17 | 0.0 | 3.2 | 0.00 | 0.00 | 0.00 | 83 | 1014.0 |
| 20260905033437 | 26 | 17 | 0.0 | 3.2 | 0.00 | 0.00 | 0.00 | 83 | 1014.0 |
| 20260905033343 | 26 | 17 | 0.0 | 3.2 | 0.00 | 0.00 | 0.00 | 83 | 1014.0 |
| 20260905033311 | 26 | 17 | 1.6 | 3.2 | 0.00 | 0.00 | 0.00 | 84 | 1014.0 |
| 20260905033023 | 26 | 17 | 0.0 | 1.6 | 0.00 | 0.00 | 0.00 | 84 | 1013.9 |
| 20260905032934 | 26 | 17 | 0.0 | 1.6 | 0.00 | 0.00 | 0.00 | 83 | 1014.0 |
| 20260905032820 | 26 | 17 | 0.0 | 1.6 | 0.00 | 0.00 | 0.00 | 83 | 1014.0 |
| 20260905032747 | 26 | 17 | 0.0 | 1.6 | 0.00 | 0.00 | 0.00 | 83 | 1014.0 |
| 20260905032632 | 26 | 17 | 0.0 | 1.6 | 0.00 | 0.00 | 0.00 | 83 | 1014.1 |
| 20260905032518 | 26 | 17 | 0.0 | 1.6 | 0.00 | 0.00 | 0.00 | 83 | 1014.1 |
| 20260905032427 | 26 | 17 | 0.0 | 1.6 | 0.00 | 0.00 | 0.00 | 82 | 1014.1 |
| 20260905032337 | 26 | 17 | 0.0 | 1.6 | 0.00 | 0.00 | 0.00 | 83 | 1014.1 |
| 20260905032223 | 26 | 17 | 0.0 | 1.6 | 0.00 | 0.00 | 0.00 | 83 | 1014.1 |
| 20260905032131 | 26 | 17 | 0.0 | 1.6 | 0.00 | 0.00 | 0.00 | 83 | 1014.1 |
| 20260905032019 | 26 | 17 | 0.0 | 1.6 | 0.00 | 0.00 | 0.00 | 83 | 1014.1 |
| 20260905031925 | 26 | 17 | 0.0 | 1.6 | 0.00 | 0.00 | 0.00 | 83 | 1014.1 |
| 20260905031834 | 26 | 17 | 0.0 | 0.0 | 0.00 | 0.00 | 0.00 | 83 | 1014.1 |
| 20260905031804 | 26 | 17 | 0.0 | 0.0 | 0.00 | 0.00 | 0.00 | 83 | 1014.1 |
| 20260905031536 | 26 | 17 | 0.0 | 1.6 | 0.00 | 0.00 | 0.00 | 83 | 1014.1 |
| 20260905031423 | 26 | 17 | 0.0 | 1.6 | 0.00 | 0.00 | 0.00 | 82 | 1014.1 |
| 20260905031351 | 26 | 17 | 0.0 | 1.6 | 0.00 | 0.00 | 0.00 | 82 | 1014.1 |
| 20260905031219 | 27 | 17 | 0.0 | 1.6 | 0.00 | 0.00 | 0.00 | 82 | 1014.0 |
| 20260905031127 | 27 | 17 | 0.0 | 4.8 | 0.00 | 0.00 | 0.00 | 82 | 1014.1 |
| 20260905031034 | 26 | 17 | 0.0 | 4.8 | 0.00 | 0.00 | 0.00 | 82 | 1014.1 |
| 20260905030920 | 27 | 17 | 0.0 | 4.8 | 0.00 | 0.00 | 0.00 | 81 | 1014.1 |
| 20260905030827 | 27 | 17 | 0.0 | 4.8 | 0.00 | 0.00 | 0.00 | 81 | 1014.0 |
| 20260905030718 | 27 | 17 | 0.0 | 4.8 | 0.00 | 0.00 | 0.00 | 82 | 1014.1 |
| 20260905030626 | 27 | 17 | 0.0 | 4.8 | 0.00 | 0.00 | 0.00 | 81 | 1014.0 |
| 20260905030532 | 26 | 17 | 0.0 | 4.8 | 0.00 | 0.00 | 0.00 | 80 | 1014.1 |
| 20260905030419 | 27 | 17 | 0.0 | 4.8 | 0.00 | 0.00 | 0.00 | 80 | 1014.1 |
| 20260905030348 | 26 | 17 | 0.0 | 4.8 | 0.00 | 0.00 | 0.00 | 80 | 1014.2 |
| 20260905030301 | 27 | 17 | 0.0 | 1.6 | 0.00 | 0.00 | 0.00 | 80 | 1014.2 |
| 20260905030034 | 26 | 11 | 0.0 | 1.6 | 0.00 | 0.00 | 0.00 | 80 | 1014.2 |
| 20260905025940 | 27 | 11 | 0.0 | 1.6 | 0.00 | 0.00 | 0.00 | 81 | 1014.2 |
| 20260905025824 | 27 | 11 | 0.0 | 1.6 | 0.00 | 0.00 | 0.00 | 81 | 1014.1 |
| 20260905025732 | 27 | 11 | 0.0 | 1.6 | 0.00 | 0.00 | 0.00 | 80 | 1014.2 |
| 20260905025619 | 27 | 11 | 0.0 | 1.6 | 0.00 | 0.00 | 0.00 | 80 | 1014.2 |
| 20260905025546 | 27 | 11 | 0.0 | 1.6 | 0.00 | 0.00 | 0.00 | 80 | 1014.2 |
| 20260905025436 | 27 | 11 | 0.0 | 3.2 | 0.00 | 0.00 | 0.00 | 80 | 1014.3 |
| 20260905025343 | 27 | 11 | 0.0 | 3.2 | 0.00 | 0.00 | 0.00 | 80 | 1014.3 |
| 20260905025229 | 27 | 11 | 0.0 | 3.2 | 0.00 | 0.00 | 0.00 | 80 | 1014.3 |
| 20260905025157 | 27 | 11 | 0.0 | 3.2 | 0.00 | 0.00 | 0.00 | 79 | 1014.2 |
| 20260905025022 | 27 | 11 | 0.0 | 3.2 | 0.00 | 0.00 | 0.00 | 79 | 1014.3 |
| 20260905024929 | 27 | 11 | 0.0 | 3.2 | 0.00 | 0.00 | 0.00 | 79 | 1014.2 |
| 20260905024840 | 27 | 11 | 0.0 | 3.2 | 0.00 | 0.00 | 0.00 | 79 | 1014.3 |
| 20260905024810 | 27 | 11 | 1.6 | 3.2 | 0.00 | 0.00 | 0.00 | 79 | 1014.3 |
| 20260905024522 | 27 | 11 | 1.6 | 4.8 | 0.00 | 0.00 | 0.00 | 79 | 1014.3 |
| 20260905024450 | 27 | 11 | 1.6 | 4.8 | 0.00 | 0.00 | 0.00 | 79 | 1014.3 |
| 20260905024336 | 27 | 11 | 1.6 | 4.8 | 0.00 | 0.00 | 0.00 | 79 | 1014.4 |
| 20260905024228 | 27 | 11 | 1.6 | 4.8 | 0.00 | 0.00 | 0.00 | 79 | 1014.3 |
| 20260905024134 | 27 | 11 | 1.6 | 4.8 | 0.00 | 0.00 | 0.00 | 79 | 1014.3 |
| 20260905024042 | 27 | 11 | 1.6 | 4.8 | 0.00 | 0.00 | 0.00 | 79 | 1014.3 |
| 20260905023949 | 27 | 11 | 3.2 | 4.8 | 0.00 | 0.00 | 0.00 | 79 | 1014.4 |
| 20260905023854 | 27 | 11 | 3.2 | 4.8 | 0.00 | 0.00 | 0.00 | 79 | 1014.4 |
| 20260905023740 | 27 | 11 | 3.2 | 4.8 | 0.00 | 0.00 | 0.00 | 79 | 1014.3 |
| 20260905023627 | 27 | 11 | 3.2 | 4.8 | 0.00 | 0.00 | 0.00 | 78 | 1014.4 |
| 20260905023517 | 27 | 11 | 1.6 | 4.8 | 0.00 | 0.00 | 0.00 | 77 | 1014.3 |
| 20260905023425 | 27 | 11 | 1.6 | 4.8 | 0.00 | 0.00 | 0.00 | 78 | 1014.4 |
| 20260905023332 | 27 | 11 | 1.6 | 4.8 | 0.00 | 0.00 | 0.00 | 78 | 1014.4 |
| 20260905023302 | 27 | 11 | 1.6 | 4.8 | 0.00 | 0.00 | 0.00 | 78 | 1014.4 |
| 20260905023055 | 27 | 11 | 3.2 | 4.8 | 0.00 | 0.00 | 0.00 | 77 | 1014.3 |
| 20260905022924 | 27 | 34 | 3.2 | 4.8 | 0.00 | 0.00 | 0.00 | 76 | 1014.4 |
| 20260905022831 | 27 | 5 | 1.6 | 4.8 | 0.00 | 0.00 | 0.00 | 77 | 1014.4 |
| 20260905022718 | 27 | 5 | 0.0 | 3.2 | 0.00 | 0.00 | 0.00 | 77 | 1014.5 |
| 20260905022625 | 27 | 5 | 0.0 | 3.2 | 0.00 | 0.00 | 0.00 | 77 | 1014.3 |
| 20260905022533 | 27 | 5 | 0.0 | 3.2 | 0.00 | 0.00 | 0.00 | 78 | 1014.4 |
| 20260905022420 | 27 | 5 | 1.6 | 3.2 | 0.00 | 0.00 | 0.00 | 78 | 1014.4 |
| 20260905022331 | 27 | 5 | 1.6 | 3.2 | 0.00 | 0.00 | 0.00 | 78 | 1014.3 |
| 20260905022237 | 27 | 5 | 1.6 | 3.2 | 0.00 | 0.00 | 0.00 | 78 | 1014.3 |
| 20260905022143 | 27 | 5 | 1.6 | 3.2 | 0.00 | 0.00 | 0.00 | 78 | 1014.4 |
| 20260905022028 | 27 | 5 | 1.6 | 3.2 | 0.00 | 0.00 | 0.00 | 78 | 1014.4 |
| 20260905021935 | 27 | 5 | 1.6 | 3.2 | 0.00 | 0.00 | 0.00 | 78 | 1014.3 |
| 20260905021824 | 27 | 5 | 0.0 | 3.2 | 0.00 | 0.00 | 0.00 | 78 | 1014.4 |
| 20260905021800 | 27 | 5 | 0.0 | 3.2 | 0.00 | 0.00 | 0.00 | 77 | 1014.4 |
| 20260905021532 | 27 | 5 | 1.6 | 3.2 | 0.00 | 0.00 | 0.00 | 77 | 1014.4 |
| 20260905021418 | 27 | 5 | 1.6 | 3.2 | 0.00 | 0.00 | 0.00 | 77 | 1014.3 |
| 20260905021325 | 27 | 5 | 1.6 | 3.2 | 0.00 | 0.00 | 0.00 | 77 | 1014.3 |
| 20260905021254 | 27 | 5 | 1.6 | 3.2 | 0.00 | 0.00 | 0.00 | 78 | 1014.3 |
| 20260905021123 | 27 | 46 | 1.6 | 3.2 | 0.00 | 0.00 | 0.00 | 78 | 1014.4 |
| 20260905021031 | 27 | 46 | 1.6 | 3.2 | 0.00 | 0.00 | 0.00 | 78 | 1014.3 |
| 20260905020918 | 27 | 46 | 0.0 | 3.2 | 0.00 | 0.00 | 0.00 | 77 | 1014.3 |
| 20260905020845 | 27 | 46 | 0.0 | 3.2 | 0.00 | 0.00 | 0.00 | 77 | 1014.2 |
| 20260905020731 | 27 | 46 | 0.0 | 3.2 | 0.00 | 0.00 | 0.00 | 77 | 1014.3 |
| 20260905020620 | 27 | 46 | 0.0 | 3.2 | 0.00 | 0.00 | 0.00 | 77 | 1014.3 |
| 20260905020528 | 27 | 46 | 1.6 | 3.2 | 0.00 | 0.00 | 0.00 | 78 | 1014.3 |
| 20260905020435 | 27 | 46 | 1.6 | 3.2 | 0.00 | 0.00 | 0.00 | 78 | 1014.3 |
| 20260905020322 | 27 | 46 | 1.6 | 3.2 | 0.00 | 0.00 | 0.00 | 77 | 1014.3 |
| 20260905020254 | 27 | 46 | 1.6 | 3.2 | 0.00 | 0.00 | 0.00 | 77 | 1014.3 |
| 20260905020031 | 27 | 30 | 0.0 | 3.2 | 0.00 | 0.00 | 0.00 | 77 | 1014.3 |
| 20260905015918 | 27 | 5 | 0.0 | 1.6 | 0.00 | 0.00 | 0.00 | 77 | 1014.3 |
| 20260905015827 | 27 | 5 | 0.0 | 1.6 | 0.00 | 0.00 | 0.00 | 76 | 1014.3 |
| 20260905015735 | 27 | 5 | 0.0 | 1.6 | 0.00 | 0.00 | 0.00 | 76 | 1014.3 |
| 20260905015640 | 27 | 5 | 0.0 | 1.6 | 0.00 | 0.00 | 0.00 | 76 | 1014.3 |
| 20260905015528 | 27 | 5 | 0.0 | 3.2 | 0.00 | 0.00 | 0.00 | 76 | 1014.4 |
| 20260905015419 | 27 | 5 | 0.0 | 3.2 | 0.00 | 0.00 | 0.00 | 75 | 1014.3 |
| 20260905015327 | 27 | 5 | 0.0 | 3.2 | 0.00 | 0.00 | 0.00 | 75 | 1014.2 |
| 20260905015234 | 27 | 5 | 0.0 | 3.2 | 0.00 | 0.00 | 0.00 | 75 | 1014.3 |
| 20260905015121 | 27 | 5 | 0.0 | 4.8 | 0.00 | 0.00 | 0.00 | 75 | 1014.4 |
| 20260905015048 | 27 | 5 | 0.0 | 4.8 | 0.00 | 0.00 | 0.00 | 75 | 1014.4 |
| 20260905014933 | 27 | 5 | 0.0 | 4.8 | 0.00 | 0.00 | 0.00 | 75 | 1014.3 |
| 20260905014824 | 27 | 5 | 1.6 | 4.8 | 0.00 | 0.00 | 0.00 | 75 | 1014.3 |
| 20260905014756 | 27 | 5 | 1.6 | 4.8 | 0.00 | 0.00 | 0.00 | 75 | 1014.3 |
| 20260905014530 | 27 | 5 | 1.6 | 4.8 | 0.00 | 0.00 | 0.00 | 76 | 1014.3 |
| 20260905014437 | 27 | 5 | 1.6 | 4.8 | 0.00 | 0.00 | 0.00 | 76 | 1014.4 |
| 20260905014328 | 27 | 5 | 3.2 | 4.8 | 0.00 | 0.00 | 0.00 | 77 | 1014.3 |
| 20260905014236 | 27 | 5 | 3.2 | 4.8 | 0.00 | 0.00 | 0.00 | 78 | 1014.3 |
| 20260905014142 | 27 | 5 | 1.6 | 3.2 | 0.00 | 0.00 | 0.00 | 77 | 1014.3 |
| 20260905014030 | 27 | 348 | 1.6 | 3.2 | 0.00 | 0.00 | 0.00 | 77 | 1014.3 |
| 20260905013936 | 27 | 348 | 1.6 | 3.2 | 0.00 | 0.00 | 0.00 | 77 | 1014.3 |
| 20260905013844 | 27 | 348 | 1.6 | 3.2 | 0.00 | 0.00 | 0.00 | 77 | 1014.3 |
| 20260905013734 | 27 | 348 | 0.0 | 1.6 | 0.00 | 0.00 | 0.00 | 77 | 1014.3 |
| 20260905013620 | 27 | 348 | 0.0 | 0.0 | 0.00 | 0.00 | 0.00 | 76 | 1014.4 |
| 20260905013529 | 27 | 348 | 0.0 | 0.0 | 0.00 | 0.00 | 0.00 | 76 | 1014.3 |
| 20260905013456 | 27 | 348 | 0.0 | 0.0 | 0.00 | 0.00 | 0.00 | 75 | 1014.3 |
| 20260905013341 | 27 | 348 | 0.0 | 0.0 | 0.00 | 0.00 | 0.00 | 75 | 1014.3 |
| 20260905013255 | 27 | 348 | 0.0 | 0.0 | 0.00 | 0.00 | 0.00 | 75 | 1014.3 |
| 20260905013028 | 27 | 348 | 0.0 | 0.0 | 0.00 | 0.00 | 0.00 | 76 | 1014.2 |
| 20260905012935 | 27 | 348 | 0.0 | 0.0 | 0.00 | 0.00 | 0.00 | 76 | 1014.3 |
| 20260905012821 | 27 | 348 | 0.0 | 0.0 | 0.00 | 0.00 | 0.00 | 76 | 1014.2 |
| 20260905012729 | 27 | 348 | 0.0 | 0.0 | 0.00 | 0.00 | 0.00 | 76 | 1014.2 |
| 20260905012637 | 27 | 348 | 0.0 | 0.0 | 0.00 | 0.00 | 0.00 | 76 | 1014.2 |
| 20260905012527 | 27 | 348 | 0.0 | 1.6 | 0.00 | 0.00 | 0.00 | 76 | 1014.2 |
| 20260905012434 | 27 | 348 | 0.0 | 1.6 | 0.00 | 0.00 | 0.00 | 76 | 1014.2 |
| 20260905012320 | 27 | 348 | 0.0 | 3.2 | 0.00 | 0.00 | 0.00 | 75 | 1014.2 |
| 20260905012247 | 27 | 348 | 0.0 | 3.2 | 0.00 | 0.00 | 0.00 | 76 | 1014.3 |
| 20260905012133 | 27 | 348 | 0.0 | 3.2 | 0.00 | 0.00 | 0.00 | 76 | 1014.2 |
| 20260905012040 | 27 | 348 | 0.0 | 3.2 | 0.00 | 0.00 | 0.00 | 75 | 1014.3 |
| 20260905011932 | 27 | 348 | 0.0 | 3.2 | 0.00 | 0.00 | 0.00 | 75 | 1014.3 |
| 20260905011859 | 27 | 348 | 0.0 | 3.2 | 0.00 | 0.00 | 0.00 | 76 | 1014.3 |
| 20260905011809 | 27 | 348 | 0.0 | 3.2 | 0.00 | 0.00 | 0.00 | 76 | 1014.3 |
| 20260905011522 | 27 | 348 | 1.6 | 3.2 | 0.00 | 0.00 | 0.00 | 75 | 1014.1 |
| 20260905011428 | 27 | 348 | 0.0 | 3.2 | 0.00 | 0.00 | 0.00 | 75 | 1014.2 |
| 20260905011318 | 27 | 348 | 0.0 | 1.6 | 0.00 | 0.00 | 0.00 | 75 | 1014.3 |
| 20260905011246 | 27 | 348 | 0.0 | 0.0 | 0.00 | 0.00 | 0.00 | 75 | 1014.3 |
| 20260905011132 | 27 | 348 | 0.0 | 0.0 | 0.00 | 0.00 | 0.00 | 75 | 1014.2 |
| 20260905011020 | 27 | 348 | 0.0 | 0.0 | 0.00 | 0.00 | 0.00 | 75 | 1014.2 |
| 20260905010928 | 27 | 348 | 0.0 | 0.0 | 0.00 | 0.00 | 0.00 | 74 | 1014.3 |
| 20260905010835 | 27 | 348 | 0.0 | 1.6 | 0.00 | 0.00 | 0.00 | 74 | 1014.1 |
| 20260905010727 | 28 | 348 | 0.0 | 4.8 | 0.00 | 0.00 | 0.00 | 74 | 1014.2 |
| 20260905010633 | 28 | 348 | 0.0 | 4.8 | 0.00 | 0.00 | 0.00 | 73 | 1014.1 |
| 20260905010521 | 28 | 348 | 0.0 | 4.8 | 0.00 | 0.00 | 0.00 | 73 | 1014.1 |
| 20260905010448 | 28 | 348 | 0.0 | 4.8 | 0.00 | 0.00 | 0.00 | 74 | 1014.1 |
| 20260905010355 | 28 | 348 | 0.0 | 4.8 | 0.00 | 0.00 | 0.00 | 74 | 1014.1 |
| 20260905010329 | 28 | 348 | 0.0 | 4.8 | 0.00 | 0.00 | 0.00 | 73 | 1014.1 |
| 20260905010021 | 28 | 348 | 3.2 | 4.8 | 0.00 | 0.00 | 0.00 | 74 | 1014.1 |
| 20260905005928 | 28 | 348 | 3.2 | 4.8 | 0.00 | 0.00 | 0.00 | 74 | 1014.1 |
| 20260905005834 | 28 | 333 | 3.2 | 4.8 | 0.00 | 0.00 | 0.00 | 73 | 1014.1 |
| 20260905005720 | 28 | 351 | 3.2 | 4.8 | 0.00 | 0.00 | 0.00 | 74 | 1014.1 |
| 20260905005627 | 28 | 351 | 3.2 | 4.8 | 0.00 | 0.00 | 0.00 | 74 | 1014.1 |
| 20260905005537 | 28 | 347 | 1.6 | 4.8 | 0.00 | 0.00 | 0.00 | 74 | 1014.1 |
| 20260905005424 | 28 | 347 | 1.6 | 4.8 | 0.00 | 0.00 | 0.00 | 74 | 1014.1 |
| 20260905005331 | 28 | 347 | 3.2 | 6.4 | 0.00 | 0.00 | 0.00 | 74 | 1014.1 |
| 20260905005239 | 28 | 337 | 3.2 | 6.4 | 0.00 | 0.00 | 0.00 | 74 | 1014.2 |
| 20260905005124 | 28 | 344 | 3.2 | 6.4 | 0.00 | 0.00 | 0.00 | 74 | 1014.1 |
| 20260905005032 | 28 | 322 | 3.2 | 6.4 | 0.00 | 0.00 | 0.00 | 75 | 1014.1 |
| 20260905004923 | 28 | 345 | 3.2 | 6.4 | 0.00 | 0.00 | 0.00 | 74 | 1014.2 |
| 20260905004831 | 28 | 342 | 3.2 | 6.4 | 0.00 | 0.00 | 0.00 | 75 | 1014.1 |
| 20260905004802 | 28 | 342 | 4.8 | 6.4 | 0.00 | 0.00 | 0.00 | 74 | 1014.1 |
| 20260905004531 | 28 | 334 | 4.8 | 6.4 | 0.00 | 0.00 | 0.00 | 74 | 1014.1 |
| 20260905004422 | 28 | 331 | 4.8 | 6.4 | 0.00 | 0.00 | 0.00 | 74 | 1014.1 |
| 20260905004329 | 28 | 342 | 4.8 | 8.0 | 0.00 | 0.00 | 0.00 | 74 | 1014.2 |
| 20260905004237 | 28 | 344 | 4.8 | 8.0 | 0.00 | 0.00 | 0.00 | 74 | 1014.1 |
| 20260905004124 | 28 | 329 | 4.8 | 8.0 | 0.00 | 0.00 | 0.00 | 74 | 1014.1 |
| 20260905004030 | 28 | 348 | 4.8 | 8.0 | 0.00 | 0.00 | 0.00 | 74 | 1014.1 |
| 20260905003922 | 28 | 346 | 4.8 | 8.0 | 0.00 | 0.00 | 0.00 | 74 | 1014.1 |
| 20260905003828 | 28 | 346 | 4.8 | 8.0 | 0.00 | 0.00 | 0.00 | 74 | 1014.1 |
| 20260905003733 | 28 | 323 | 6.4 | 8.0 | 0.00 | 0.00 | 0.00 | 74 | 1014.1 |
| 20260905003622 | 28 | 333 | 6.4 | 8.0 | 0.00 | 0.00 | 0.00 | 74 | 1014.0 |
| 20260905003529 | 28 | 343 | 6.4 | 8.0 | 0.00 | 0.00 | 0.00 | 74 | 1014.1 |
| 20260905003435 | 28 | 341 | 4.8 | 6.4 | 0.00 | 0.00 | 0.00 | 73 | 1014.1 |
| 20260905003326 | 28 | 337 | 4.8 | 6.4 | 0.00 | 0.00 | 0.00 | 74 | 1014.1 |
| 20260905003256 | 28 | 360 | 4.8 | 6.4 | 0.00 | 0.00 | 0.00 | 73 | 1014.1 |
| 20260905003030 | 28 | 5 | 4.8 | 6.4 | 0.00 | 0.00 | 0.00 | 73 | 1014.2 |
| 20260905002937 | 28 | 334 | 4.8 | 6.4 | 0.00 | 0.00 | 0.00 | 73 | 1014.1 |
| 20260905002828 | 28 | 323 | 3.2 | 6.4 | 0.00 | 0.00 | 0.00 | 73 | 1014.1 |
| 20260905002734 | 28 | 342 | 3.2 | 6.4 | 0.00 | 0.00 | 0.00 | 73 | 1014.0 |
| 20260905002621 | 28 | 339 | 3.2 | 6.4 | 0.00 | 0.00 | 0.00 | 72 | 1014.0 |
| 20260905002528 | 28 | 314 | 4.8 | 6.4 | 0.00 | 0.00 | 0.00 | 73 | 1014.1 |
| 20260905002435 | 28 | 344 | 4.8 | 6.4 | 0.00 | 0.00 | 0.00 | 73 | 1014.1 |
| 20260905002320 | 28 | 360 | 4.8 | 6.4 | 0.00 | 0.00 | 0.00 | 73 | 1014.1 |
| 20260905002232 | 28 | 329 | 4.8 | 6.4 | 0.00 | 0.00 | 0.00 | 73 | 1014.1 |
| 20260905002118 | 28 | 346 | 4.8 | 6.4 | 0.00 | 0.00 | 0.00 | 73 | 1014.0 |
| 20260905002025 | 28 | 340 | 4.8 | 6.4 | 0.00 | 0.00 | 0.00 | 73 | 1014.1 |
| 20260905001931 | 28 | 333 | 3.2 | 6.4 | 0.00 | 0.00 | 0.00 | 72 | 1014.0 |
| 20260905001859 | 28 | 334 | 3.2 | 4.8 | 0.00 | 0.00 | 0.00 | 72 | 1014.0 |
| 20260905001832 | 28 | 327 | 3.2 | 6.4 | 0.00 | 0.00 | 0.00 | 72 | 1014.0 |
| 20260905001544 | 28 | 328 | 3.2 | 6.4 | 0.00 | 0.00 | 0.00 | 72 | 1014.0 |
| 20260905001450 | 28 | 317 | 3.2 | 6.4 | 0.00 | 0.00 | 0.00 | 71 | 1014.1 |
| 20260905001336 | 28 | 347 | 3.2 | 6.4 | 0.00 | 0.00 | 0.00 | 72 | 1014.1 |
| 20260905001223 | 28 | 339 | 3.2 | 6.4 | 0.00 | 0.00 | 0.00 | 72 | 1014.1 |
| 20260905001128 | 28 | 323 | 3.2 | 6.4 | 0.00 | 0.00 | 0.00 | 72 | 1014.0 |
| 20260905001019 | 28 | 345 | 3.2 | 6.4 | 0.00 | 0.00 | 0.00 | 71 | 1014.1 |
| 20260905000927 | 28 | 329 | 4.8 | 8.0 | 0.00 | 0.00 | 0.00 | 71 | 1014.1 |
| 20260905000834 | 28 | 340 | 4.8 | 8.0 | 0.00 | 0.00 | 0.00 | 71 | 1014.0 |
| 20260905000721 | 28 | 349 | 4.8 | 8.0 | 0.00 | 0.00 | 0.00 | 72 | 1014.0 |
| 20260905000648 | 28 | 355 | 4.8 | 8.0 | 0.00 | 0.00 | 0.00 | 71 | 1014.0 |
| 20260905000553 | 28 | 355 | 3.2 | 8.0 | 0.00 | 0.00 | 0.00 | 71 | 1014.0 |
| 20260905000424 | 29 | 13 | 3.2 | 8.0 | 0.00 | 0.00 | 0.00 | 71 | 1014.1 |
| 20260905000350 | 29 | 340 | 4.8 | 8.0 | 0.00 | 0.00 | 0.00 | 71 | 1014.1 |
| 20260905000300 | 29 | 335 | 4.8 | 8.0 | 0.00 | 0.00 | 0.00 | 71 | 1014.1 |
| 20260905000032 | 29 | 315 | 3.2 | 9.7 | 0.00 | 0.00 | 0.00 | 71 | 1014.0 |
| 20260904235920 | 29 | 345 | 3.2 | 9.7 | 0.00 | 0.00 | 0.00 | 71 | 1014.0 |
| 20260904235830 | 29 | 285 | 4.8 | 9.7 | 0.00 | 0.00 | 0.00 | 71 | 1014.0 |
| 20260904235717 | 29 | 306 | 4.8 | 9.7 | 0.00 | 0.00 | 0.00 | 71 | 1014.0 |
| 20260904235624 | 29 | 273 | 4.8 | 9.7 | 0.00 | 0.00 | 0.00 | 71 | 1014.0 |
| 20260904235552 | 29 | 297 | 4.8 | 9.7 | 0.00 | 0.00 | 0.00 | 71 | 1014.1 |
| 20260904235437 | 29 | 312 | 4.8 | 9.7 | 0.00 | 0.00 | 0.00 | 71 | 1014.1 |
| 20260904235322 | 29 | 303 | 6.4 | 12.9 | 0.00 | 0.00 | 0.00 | 71 | 1014.1 |
| 20260904235229 | 29 | 313 | 4.8 | 12.9 | 0.00 | 0.00 | 0.00 | 71 | 1014.0 |
| 20260904235121 | 29 | 323 | 1.6 | 12.9 | 0.00 | 0.00 | 0.00 | 71 | 1014.0 |
| 20260904235027 | 29 | 321 | 3.2 | 12.9 | 0.00 | 0.00 | 0.00 | 71 | 1014.1 |
| 20260904234934 | 29 | 297 | 3.2 | 12.9 | 0.00 | 0.00 | 0.00 | 71 | 1014.1 |
| 20260904234821 | 29 | 338 | 4.8 | 12.9 | 0.00 | 0.00 | 0.00 | 71 | 1014.1 |
| 20260904234756 | 29 | 338 | 6.4 | 12.9 | 0.00 | 0.00 | 0.00 | 71 | 1014.1 |
| 20260904234548 | 29 | 336 | 6.4 | 12.9 | 0.00 | 0.00 | 0.00 | 71 | 1014.1 |
| 20260904234434 | 29 | 330 | 6.4 | 12.9 | 0.00 | 0.00 | 0.00 | 71 | 1014.1 |
| 20260904234320 | 29 | 336 | 4.8 | 12.9 | 0.00 | 0.00 | 0.00 | 71 | 1014.1 |
| 20260904234226 | 29 | 327 | 4.8 | 12.9 | 0.00 | 0.00 | 0.00 | 71 | 1014.1 |
| 20260904234135 | 29 | 338 | 4.8 | 12.9 | 0.00 | 0.00 | 0.00 | 71 | 1014.1 |
| 20260904234026 | 29 | 300 | 4.8 | 12.9 | 0.00 | 0.00 | 0.00 | 71 | 1014.0 |
| 20260904233934 | 29 | 334 | 6.4 | 12.9 | 0.00 | 0.00 | 0.00 | 71 | 1014.1 |
| 20260904233821 | 29 | 321 | 6.4 | 14.5 | 0.00 | 0.00 | 0.00 | 70 | 1014.0 |
| 20260904233729 | 29 | 342 | 6.4 | 14.5 | 0.00 | 0.00 | 0.00 | 70 | 1014.1 |
| 20260904233635 | 29 | 338 | 6.4 | 14.5 | 0.00 | 0.00 | 0.00 | 70 | 1014.1 |
| 20260904233526 | 29 | 333 | 8.0 | 14.5 | 0.00 | 0.00 | 0.00 | 70 | 1014.0 |
| 20260904233434 | 29 | 330 | 8.0 | 14.5 | 0.00 | 0.00 | 0.00 | 70 | 1014.0 |
| 20260904233321 | 30 | 332 | 8.0 | 14.5 | 0.00 | 0.00 | 0.00 | 70 | 1014.0 |
| 20260904233251 | 30 | 325 | 8.0 | 14.5 | 0.00 | 0.00 | 0.00 | 70 | 1014.0 |
| 20260904233024 | 30 | 348 | 9.7 | 16.1 | 0.00 | 0.00 | 0.00 | 70 | 1014.0 |
| 20260904232935 | 30 | 340 | 9.7 | 16.1 | 0.00 | 0.00 | 0.00 | 70 | 1014.0 |
| 20260904232822 | 30 | 341 | 8.0 | 16.1 | 0.00 | 0.00 | 0.00 | 70 | 1014.0 |
| 20260904232728 | 30 | 328 | 8.0 | 16.1 | 0.00 | 0.00 | 0.00 | 69 | 1014.2 |
| 20260904232634 | 30 | 315 | 8.0 | 16.1 | 0.00 | 0.00 | 0.00 | 69 | 1014.0 |
| 20260904232521 | 30 | 331 | 8.0 | 16.1 | 0.00 | 0.00 | 0.00 | 69 | 1014.0 |
| 20260904232431 | 30 | 327 | 9.7 | 16.1 | 0.00 | 0.00 | 0.00 | 69 | 1014.1 |
| 20260904232357 | 30 | 346 | 9.7 | 16.1 | 0.00 | 0.00 | 0.00 | 69 | 1014.0 |
| 20260904232222 | 30 | 355 | 9.7 | 16.1 | 0.00 | 0.00 | 0.00 | 69 | 1014.0 |
| 20260904232129 | 30 | 334 | 8.0 | 16.1 | 0.00 | 0.00 | 0.00 | 69 | 1014.0 |
| 20260904232035 | 30 | 320 | 6.4 | 16.1 | 0.00 | 0.00 | 0.00 | 69 | 1014.0 |
| 20260904231923 | 30 | 346 | 8.0 | 17.7 | 0.00 | 0.00 | 0.00 | 68 | 1013.9 |
| 20260904231833 | 30 | 343 | 8.0 | 17.7 | 0.00 | 0.00 | 0.00 | 68 | 1013.9 |
| 20260904231803 | 30 | 344 | 9.7 | 17.7 | 0.00 | 0.00 | 0.00 | 68 | 1013.9 |
| 20260904231536 | 30 | 355 | 11.3 | 19.3 | 0.00 | 0.00 | 0.00 | 68 | 1013.9 |
| 20260904231421 | 30 | 5 | 11.3 | 19.3 | 0.00 | 0.00 | 0.00 | 67 | 1013.8 |
| 20260904231328 | 30 | 5 | 12.9 | 19.3 | 0.00 | 0.00 | 0.00 | 67 | 1013.9 |
| 20260904231219 | 30 | 330 | 11.3 | 19.3 | 0.00 | 0.00 | 0.00 | 67 | 1013.9 |
| 20260904231126 | 30 | 338 | 11.3 | 19.3 | 0.00 | 0.00 | 0.00 | 67 | 1014.0 |
| 20260904231033 | 30 | 5 | 9.7 | 19.3 | 0.00 | 0.00 | 0.00 | 67 | 1014.0 |
| 20260904230919 | 30 | 331 | 9.7 | 19.3 | 0.00 | 0.00 | 0.00 | 66 | 1014.0 |
| 20260904230827 | 30 | 316 | 12.9 | 19.3 | 0.00 | 0.00 | 0.00 | 66 | 1014.1 |
| 20260904230740 | 31 | 340 | 12.9 | 19.3 | 0.00 | 0.00 | 0.00 | 66 | 1014.1 |
| 20260904230626 | 31 | 331 | 9.7 | 17.7 | 0.00 | 0.00 | 0.00 | 66 | 1014.1 |
| 20260904230533 | 31 | 344 | 8.0 | 17.7 | 0.00 | 0.00 | 0.00 | 66 | 1014.1 |
| 20260904230419 | 31 | 331 | 9.7 | 19.3 | 0.00 | 0.00 | 0.00 | 66 | 1014.1 |
| 20260904230327 | 31 | 351 | 11.3 | 22.5 | 0.00 | 0.00 | 0.00 | 66 | 1014.0 |
| 20260904230300 | 31 | 355 | 11.3 | 22.5 | 0.00 | 0.00 | 0.00 | 65 | 1014.0 |
| 20260904230034 | 31 | 355 | 8.0 | 22.5 | 0.00 | 0.00 | 0.00 | 65 | 1014.1 |
| 20260904225922 | 31 | 322 | 9.7 | 22.5 | 0.00 | 0.00 | 0.00 | 65 | 1014.1 |
| 20260904225828 | 31 | 312 | 12.9 | 22.5 | 0.00 | 0.00 | 0.00 | 65 | 1014.0 |
| 20260904225736 | 31 | 328 | 12.9 | 22.5 | 0.00 | 0.00 | 0.00 | 64 | 1014.0 |
| 20260904225628 | 31 | 338 | 16.1 | 22.5 | 0.00 | 0.00 | 0.00 | 64 | 1013.9 |
| 20260904225555 | 31 | 318 | 16.1 | 22.5 | 0.00 | 0.00 | 0.00 | 64 | 1013.9 |
| 20260904225421 | 32 | 324 | 12.9 | 16.1 | 0.00 | 0.00 | 0.00 | 64 | 1013.8 |
| 20260904225328 | 32 | 331 | 11.3 | 16.1 | 0.00 | 0.00 | 0.00 | 64 | 1013.8 |
| 20260904225234 | 32 | 331 | 11.3 | 14.5 | 0.00 | 0.00 | 0.00 | 64 | 1013.7 |
| 20260904225123 | 32 | 344 | 11.3 | 16.1 | 0.00 | 0.00 | 0.00 | 64 | 1013.8 |
| 20260904225033 | 32 | 318 | 9.7 | 19.3 | 0.00 | 0.00 | 0.00 | 64 | 1013.8 |
| 20260904224920 | 32 | 5 | 6.4 | 22.5 | 0.00 | 0.00 | 0.00 | 64 | 1013.7 |
| 20260904224827 | 32 | 10 | 4.8 | 22.5 | 0.00 | 0.00 | 0.00 | 64 | 1013.7 |
| 20260904224758 | 32 | 355 | 4.8 | 22.5 | 0.00 | 0.00 | 0.00 | 63 | 1013.7 |
| 20260904224532 | 32 | 313 | 8.0 | 22.5 | 0.00 | 0.00 | 0.00 | 63 | 1013.6 |
| 20260904224423 | 32 | 346 | 9.7 | 22.5 | 0.00 | 0.00 | 0.00 | 62 | 1013.6 |
| 20260904224350 | 32 | 317 | 12.9 | 22.5 | 0.00 | 0.00 | 0.00 | 62 | 1013.6 |
| 20260904224236 | 33 | 328 | 16.1 | 22.5 | 0.00 | 0.00 | 0.00 | 62 | 1013.5 |
| 20260904224122 | 33 | 319 | 14.5 | 22.5 | 0.00 | 0.00 | 0.00 | 62 | 1013.6 |
| 20260904224028 | 33 | 350 | 11.3 | 20.9 | 0.00 | 0.00 | 0.00 | 62 | 1013.6 |
| 20260904223920 | 33 | 349 | 9.7 | 20.9 | 0.00 | 0.00 | 0.00 | 62 | 1013.7 |
| 20260904223827 | 33 | 338 | 11.3 | 20.9 | 0.00 | 0.00 | 0.00 | 62 | 1013.6 |
| 20260904223734 | 33 | 355 | 14.5 | 20.9 | 0.00 | 0.00 | 0.00 | 62 | 1013.7 |
| 20260904223621 | 33 | 344 | 12.9 | 20.9 | 0.00 | 0.00 | 0.00 | 62 | 1013.7 |
| 20260904223528 | 33 | 355 | 11.3 | 20.9 | 0.00 | 0.00 | 0.00 | 61 | 1013.7 |
| 20260904223434 | 33 | 355 | 8.0 | 24.1 | 0.00 | 0.00 | 0.00 | 61 | 1013.7 |
| 20260904223325 | 33 | 311 | 9.7 | 25.7 | 0.00 | 0.00 | 0.00 | 60 | 1013.7 |
| 20260904223256 | 33 | 350 | 9.7 | 25.7 | 0.00 | 0.00 | 0.00 | 60 | 1013.7 |
| 20260904223031 | 34 | 321 | 11.3 | 25.7 | 0.00 | 0.00 | 0.00 | 60 | 1013.7 |
| 20260904222919 | 34 | 343 | 12.9 | 25.7 | 0.00 | 0.00 | 0.00 | 59 | 1013.6 |
| 20260904222830 | 34 | 332 | 14.5 | 25.7 | 0.00 | 0.00 | 0.00 | 59 | 1013.7 |
| 20260904222736 | 34 | 328 | 16.1 | 25.7 | 0.00 | 0.00 | 0.00 | 58 | 1013.7 |
| 20260904222624 | 35 | 333 | 17.7 | 25.7 | 0.00 | 0.00 | 0.00 | 58 | 1013.7 |
| 20260904222530 | 35 | 329 | 17.7 | 25.7 | 0.00 | 0.00 | 0.00 | 59 | 1013.6 |
| 20260904222437 | 35 | 321 | 19.3 | 25.7 | 0.00 | 0.00 | 0.00 | 58 | 1013.6 |
| 20260904222343 | 35 | 301 | 11.3 | 24.1 | 0.00 | 0.00 | 0.00 | 59 | 1013.6 |
| 20260904222228 | 35 | 306 | 11.3 | 16.1 | 0.00 | 0.00 | 0.00 | 58 | 1013.7 |
| 20260904222119 | 35 | 329 | 11.3 | 16.1 | 0.00 | 0.00 | 0.00 | 59 | 1013.7 |
| 20260904222024 | 35 | 328 | 9.7 | 16.1 | 0.00 | 0.00 | 0.00 | 59 | 1013.6 |
| 20260904221952 | 35 | 323 | 8.0 | 16.1 | 0.00 | 0.00 | 0.00 | 59 | 1013.5 |
| 20260904221836 | 35 | 321 | 6.4 | 12.9 | 0.00 | 0.00 | 0.00 | 59 | 1013.6 |
| 20260904221807 | 35 | 327 | 6.4 | 12.9 | 0.00 | 0.00 | 0.00 | 58 | 1013.6 |
| 20260904221522 | 35 | 319 | 6.4 | 12.9 | 0.00 | 0.00 | 0.00 | 57 | 1013.5 |
| 20260904221430 | 35 | 247 | 6.4 | 12.9 | 0.00 | 0.00 | 0.00 | 58 | 1013.5 |
| 20260904221337 | 35 | 298 | 6.4 | 12.9 | 0.00 | 0.00 | 0.00 | 57 | 1013.5 |
| 20260904221226 | 35 | 307 | 6.4 | 14.5 | 0.00 | 0.00 | 0.00 | 58 | 1013.6 |
| 20260904221152 | 35 | 317 | 6.4 | 14.5 | 0.00 | 0.00 | 0.00 | 57 | 1013.6 |
| 20260904221019 | 35 | 302 | 6.4 | 14.5 | 0.00 | 0.00 | 0.00 | 58 | 1013.5 |
| 20260904220930 | 35 | 277 | 6.4 | 14.5 | 0.00 | 0.00 | 0.00 | 58 | 1013.7 |
| 20260904220857 | 35 | 288 | 6.4 | 16.1 | 0.00 | 0.00 | 0.00 | 58 | 1013.7 |
| 20260904220721 | 35 | 276 | 6.4 | 16.1 | 0.00 | 0.00 | 0.00 | 59 | 1013.7 |
| 20260904220629 | 35 | 258 | 8.0 | 16.1 | 0.00 | 0.00 | 0.00 | 59 | 1013.6 |
| 20260904220536 | 35 | 290 | 8.0 | 16.1 | 0.00 | 0.00 | 0.00 | 59 | 1013.5 |
| 20260904220422 | 34 | 272 | 8.0 | 16.1 | 0.00 | 0.00 | 0.00 | 60 | 1013.5 |
| 20260904220334 | 34 | 304 | 9.7 | 16.1 | 0.00 | 0.00 | 0.00 | 61 | 1013.5 |
| 20260904220303 | 34 | 297 | 9.7 | 16.1 | 0.00 | 0.00 | 0.00 | 61 | 1013.5 |
| 20260904220036 | 34 | 279 | 9.7 | 16.1 | 0.00 | 0.00 | 0.00 | 61 | 1013.4 |
| 20260904215922 | 34 | 298 | 6.4 | 14.5 | 0.00 | 0.00 | 0.00 | 61 | 1013.5 |
| 20260904215832 | 34 | 217 | 6.4 | 14.5 | 0.00 | 0.00 | 0.00 | 61 | 1013.5 |
| 20260904215719 | 34 | 287 | 8.0 | 14.5 | 0.00 | 0.00 | 0.00 | 61 | 1013.4 |
| 20260904215626 | 34 | 298 | 9.7 | 14.5 | 0.00 | 0.00 | 0.00 | 61 | 1013.4 |
| 20260904215553 | 34 | 250 | 8.0 | 14.5 | 0.00 | 0.00 | 0.00 | 61 | 1013.5 |
| 20260904215420 | 34 | 284 | 6.4 | 14.5 | 0.00 | 0.00 | 0.00 | 61 | 1013.4 |
| 20260904215326 | 34 | 96 | 6.4 | 12.9 | 0.00 | 0.00 | 0.00 | 60 | 1013.5 |
| 20260904215254 | 34 | 263 | 8.0 | 14.5 | 0.00 | 0.00 | 0.00 | 61 | 1013.4 |
| 20260904215124 | 34 | 229 | 4.8 | 14.5 | 0.00 | 0.00 | 0.00 | 61 | 1013.5 |
| 20260904215051 | 33 | 283 | 3.2 | 14.5 | 0.00 | 0.00 | 0.00 | 62 | 1013.5 |
| 20260904214958 | 33 | 248 | 3.2 | 14.5 | 0.00 | 0.00 | 0.00 | 61 | 1013.5 |
| 20260904214843 | 33 | 227 | 4.8 | 14.5 | 0.00 | 0.00 | 0.00 | 61 | 1013.5 |
| 20260904214814 | 33 | 251 | 6.4 | 14.5 | 0.00 | 0.00 | 0.00 | 61 | 1013.5 |
| 20260904214529 | 33 | 240 | 9.7 | 14.5 | 0.00 | 0.00 | 0.00 | 62 | 1013.3 |
| 20260904214436 | 33 | 260 | 6.4 | 12.9 | 0.00 | 0.00 | 0.00 | 62 | 1013.3 |
| 20260904214343 | 33 | 308 | 6.4 | 11.3 | 0.00 | 0.00 | 0.00 | 61 | 1013.3 |
| 20260904214228 | 33 | 238 | 6.4 | 11.3 | 0.00 | 0.00 | 0.00 | 61 | 1013.3 |
| 20260904214135 | 33 | 248 | 4.8 | 9.7 | 0.00 | 0.00 | 0.00 | 60 | 1013.4 |
| 20260904214023 | 33 | 275 | 4.8 | 8.0 | 0.00 | 0.00 | 0.00 | 61 | 1013.4 |
| 20260904213950 | 33 | 282 | 4.8 | 8.0 | 0.00 | 0.00 | 0.00 | 62 | 1013.5 |
| 20260904213818 | 33 | 265 | 4.8 | 12.9 | 0.00 | 0.00 | 0.00 | 62 | 1013.4 |
| 20260904213745 | 33 | 267 | 4.8 | 12.9 | 0.00 | 0.00 | 0.00 | 63 | 1013.5 |
| 20260904213652 | 33 | 261 | 4.8 | 12.9 | 0.00 | 0.00 | 0.00 | 63 | 1013.5 |
| 20260904213517 | 33 | 260 | 4.8 | 12.9 | 0.00 | 0.00 | 0.00 | 61 | 1013.5 |
| 20260904213424 | 33 | 254 | 4.8 | 12.9 | 0.00 | 0.00 | 0.00 | 63 | 1013.4 |
| 20260904213330 | 33 | 298 | 4.8 | 12.9 | 0.00 | 0.00 | 0.00 | 61 | 1013.4 |
| 20260904213303 | 33 | 250 | 6.4 | 12.9 | 0.00 | 0.00 | 0.00 | 61 | 1013.4 |
| 20260904213036 | 33 | 194 | 8.0 | 12.9 | 0.00 | 0.00 | 0.00 | 62 | 1013.3 |
| 20260904212922 | 33 | 167 | 6.4 | 11.3 | 0.00 | 0.00 | 0.00 | 62 | 1013.4 |
| 20260904212849 | 33 | 220 | 6.4 | 11.3 | 0.00 | 0.00 | 0.00 | 62 | 1013.3 |
| 20260904212734 | 33 | 197 | 6.4 | 11.3 | 0.00 | 0.00 | 0.00 | 61 | 1013.3 |
| 20260904212645 | 33 | 218 | 6.4 | 9.7 | 0.00 | 0.00 | 0.00 | 60 | 1013.3 |
| 20260904212532 | 33 | 186 | 4.8 | 11.3 | 0.00 | 0.00 | 0.00 | 60 | 1013.4 |
| 20260904212418 | 33 | 196 | 4.8 | 11.3 | 0.00 | 0.00 | 0.00 | 59 | 1013.4 |
| 20260904212346 | 33 | 226 | 3.2 | 11.3 | 0.00 | 0.00 | 0.00 | 58 | 1013.4 |
| 20260904212232 | 33 | 174 | 3.2 | 11.3 | 0.00 | 0.00 | 0.00 | 58 | 1013.4 |
| 20260904212118 | 33 | 154 | 3.2 | 11.3 | 0.00 | 0.00 | 0.00 | 57 | 1013.4 |
| 20260904212029 | 33 | 133 | 3.2 | 11.3 | 0.00 | 0.00 | 0.00 | 57 | 1013.4 |
| 20260904211917 | 33 | 121 | 3.2 | 11.3 | 0.00 | 0.00 | 0.00 | 58 | 1013.4 |
| 20260904211844 | 33 | 139 | 3.2 | 12.9 | 0.00 | 0.00 | 0.00 | 58 | 1013.5 |
| 20260904211753 | 33 | 126 | 3.2 | 12.9 | 0.00 | 0.00 | 0.00 | 58 | 1013.5 |
| 20260904211548 | 33 | 207 | 4.8 | 12.9 | 0.00 | 0.00 | 0.00 | 58 | 1013.3 |
| 20260904211419 | 33 | 182 | 4.8 | 12.9 | 0.00 | 0.00 | 0.00 | 59 | 1013.3 |
| 20260904211324 | 33 | 180 | 4.8 | 12.9 | 0.00 | 0.00 | 0.00 | 60 | 1013.2 |
| 20260904211231 | 33 | 155 | 6.4 | 12.9 | 0.00 | 0.00 | 0.00 | 58 | 1013.2 |
| 20260904211118 | 33 | 138 | 8.0 | 12.9 | 0.00 | 0.00 | 0.00 | 60 | 1013.3 |
| 20260904211024 | 33 | 184 | 8.0 | 12.9 | 0.00 | 0.00 | 0.00 | 61 | 1013.3 |
| 20260904210951 | 33 | 119 | 8.0 | 12.9 | 0.00 | 0.00 | 0.00 | 60 | 1013.3 |
| 20260904210820 | 33 | 126 | 8.0 | 12.9 | 0.00 | 0.00 | 0.00 | 60 | 1013.2 |
| 20260904210726 | 33 | 121 | 8.0 | 12.9 | 0.00 | 0.00 | 0.00 | 60 | 1013.2 |
| 20260904210634 | 33 | 119 | 8.0 | 12.9 | 0.00 | 0.00 | 0.00 | 60 | 1013.2 |
| 20260904210542 | 33 | 123 | 8.0 | 14.5 | 0.00 | 0.00 | 0.00 | 60 | 1013.1 |
| 20260904210429 | 33 | 109 | 6.4 | 14.5 | 0.00 | 0.00 | 0.00 | 59 | 1013.2 |
| 20260904210356 | 33 | 133 | 4.8 | 14.5 | 0.00 | 0.00 | 0.00 | 59 | 1013.2 |
| 20260904210329 | 33 | 136 | 4.8 | 14.5 | 0.00 | 0.00 | 0.00 | 60 | 1013.2 |
| 20260904210023 | 33 | 59 | 6.4 | 14.5 | 0.00 | 0.00 | 0.00 | 60 | 1013.2 |
| 20260904205928 | 33 | 185 | 6.4 | 16.1 | 0.00 | 0.00 | 0.00 | 59 | 1013.4 |
| 20260904205835 | 33 | 139 | 9.7 | 16.1 | 0.00 | 0.00 | 0.00 | 59 | 1013.4 |
| 20260904205721 | 33 | 153 | 9.7 | 16.1 | 0.00 | 0.00 | 0.00 | 59 | 1013.3 |
| 20260904205633 | 33 | 140 | 8.0 | 16.1 | 0.00 | 0.00 | 0.00 | 59 | 1013.2 |
| 20260904205539 | 33 | 115 | 6.4 | 16.1 | 0.00 | 0.00 | 0.00 | 59 | 1013.1 |
| 20260904205425 | 34 | 140 | 6.4 | 16.1 | 0.00 | 0.00 | 0.00 | 59 | 1013.1 |
| 20260904205331 | 34 | 137 | 8.0 | 17.7 | 0.00 | 0.00 | 0.00 | 59 | 1013.0 |
| 20260904205238 | 34 | 71 | 11.3 | 17.7 | 0.00 | 0.00 | 0.00 | 58 | 1013.0 |
| 20260904205124 | 34 | 135 | 12.9 | 17.7 | 0.00 | 0.00 | 0.00 | 58 | 1013.0 |
| 20260904205030 | 34 | 105 | 11.3 | 17.7 | 0.00 | 0.00 | 0.00 | 58 | 1013.0 |
| 20260904204920 | 34 | 131 | 9.7 | 19.3 | 0.00 | 0.00 | 0.00 | 59 | 1013.0 |
| 20260904204827 | 34 | 132 | 11.3 | 22.5 | 0.00 | 0.00 | 0.00 | 58 | 1013.0 |
| 20260904204756 | 35 | 139 | 11.3 | 22.5 | 0.00 | 0.00 | 0.00 | 57 | 1013.0 |
| 20260904204527 | 35 | 106 | 9.7 | 22.5 | 0.00 | 0.00 | 0.00 | 59 | 1013.1 |
| 20260904204419 | 35 | 101 | 9.7 | 22.5 | 0.00 | 0.00 | 0.00 | 57 | 1013.1 |
| 20260904204326 | 35 | 113 | 11.3 | 22.5 | 0.00 | 0.00 | 0.00 | 57 | 1013.1 |
| 20260904204233 | 35 | 121 | 11.3 | 22.5 | 0.00 | 0.00 | 0.00 | 60 | 1013.2 |
| 20260904204120 | 35 | 122 | 14.5 | 22.5 | 0.00 | 0.00 | 0.00 | 56 | 1013.3 |
| 20260904204028 | 35 | 111 | 14.5 | 22.5 | 0.00 | 0.00 | 0.00 | 56 | 1013.3 |
| 20260904203918 | 35 | 90 | 12.9 | 20.9 | 0.00 | 0.00 | 0.00 | 57 | 1013.3 |
| 20260904203824 | 35 | 94 | 11.3 | 22.5 | 0.00 | 0.00 | 0.00 | 57 | 1013.3 |
| 20260904203730 | 35 | 132 | 11.3 | 22.5 | 0.00 | 0.00 | 0.00 | 58 | 1013.3 |
| 20260904203636 | 35 | 163 | 12.9 | 22.5 | 0.00 | 0.00 | 0.00 | 57 | 1013.4 |
| 20260904203522 | 35 | 109 | 14.5 | 22.5 | 0.00 | 0.00 | 0.00 | 56 | 1013.3 |
| 20260904203451 | 35 | 113 | 12.9 | 22.5 | 0.00 | 0.00 | 0.00 | 56 | 1013.4 |
| 20260904203417 | 35 | 121 | 14.5 | 22.5 | 0.00 | 0.00 | 0.00 | 56 | 1013.4 |
| 20260904203327 | 36 | 121 | 14.5 | 22.5 | 0.00 | 0.00 | 0.00 | 56 | 1013.4 |
| 20260904203019 | 36 | 109 | 12.9 | 22.5 | 0.00 | 0.00 | 0.00 | 56 | 1013.4 |
| 20260904202926 | 36 | 157 | 14.5 | 20.9 | 0.00 | 0.00 | 0.00 | 55 | 1013.4 |
| 20260904202833 | 36 | 115 | 14.5 | 20.9 | 0.00 | 0.00 | 0.00 | 55 | 1013.4 |
| 20260904202719 | 36 | 94 | 11.3 | 17.7 | 0.00 | 0.00 | 0.00 | 54 | 1013.5 |
| 20260904202629 | 36 | 21 | 9.7 | 16.1 | 0.00 | 0.00 | 0.00 | 53 | 1013.4 |
| 20260904202517 | 36 | 49 | 8.0 | 16.1 | 0.00 | 0.00 | 0.00 | 54 | 1013.5 |
| 20260904202423 | 36 | 142 | 6.4 | 16.1 | 0.00 | 0.00 | 0.00 | 55 | 1013.5 |
| 20260904202350 | 36 | 67 | 6.4 | 16.1 | 0.00 | 0.00 | 0.00 | 53 | 1013.5 |
| 20260904202237 | 36 | 148 | 8.0 | 16.1 | 0.00 | 0.00 | 0.00 | 53 | 1013.6 |
| 20260904202143 | 36 | 102 | 6.4 | 16.1 | 0.00 | 0.00 | 0.00 | 52 | 1013.6 |
| 20260904202034 | 36 | 93 | 6.4 | 16.1 | 0.00 | 0.00 | 0.00 | 52 | 1013.5 |
| 20260904201919 | 36 | 59 | 9.7 | 16.1 | 0.00 | 0.00 | 0.00 | 52 | 1013.5 |
| 20260904201827 | 36 | 126 | 9.7 | 16.1 | 0.00 | 0.00 | 0.00 | 51 | 1013.6 |
| 20260904201758 | 36 | 126 | 8.0 | 16.1 | 0.00 | 0.00 | 0.00 | 51 | 1013.6 |
| 20260904201550 | 36 | 25 | 4.8 | 14.5 | 0.00 | 0.00 | 0.00 | 52 | 1013.6 |
| 20260904201419 | 36 | 85 | 4.8 | 14.5 | 0.00 | 0.00 | 0.00 | 52 | 1013.7 |
| 20260904201328 | 36 | 5 | 6.4 | 14.5 | 0.00 | 0.00 | 0.00 | 51 | 1013.7 |
| 20260904201234 | 36 | 63 | 8.0 | 14.5 | 0.00 | 0.00 | 0.00 | 52 | 1013.8 |
| 20260904201120 | 36 | 79 | 9.7 | 14.5 | 0.00 | 0.00 | 0.00 | 52 | 1013.7 |
| 20260904201029 | 36 | 69 | 8.0 | 14.5 | 0.00 | 0.00 | 0.00 | 53 | 1013.7 |
| 20260904200920 | 36 | 125 | 6.4 | 14.5 | 0.00 | 0.00 | 0.00 | 50 | 1013.8 |
| 20260904200827 | 36 | 136 | 6.4 | 14.5 | 0.00 | 0.00 | 0.00 | 51 | 1013.8 |
| 20260904200735 | 36 | 115 | 8.0 | 14.5 | 0.00 | 0.00 | 0.00 | 52 | 1013.7 |
| 20260904200621 | 36 | 83 | 9.7 | 14.5 | 0.00 | 0.00 | 0.00 | 52 | 1013.8 |
| 20260904200528 | 36 | 84 | 8.0 | 14.5 | 0.00 | 0.00 | 0.00 | 54 | 1013.7 |
| 20260904200435 | 36 | 111 | 4.8 | 11.3 | 0.00 | 0.00 | 0.00 | 52 | 1013.8 |
| 20260904200324 | 36 | 155 | 4.8 | 11.3 | 0.00 | 0.00 | 0.00 | 52 | 1013.8 |
| 20260904200255 | 36 | 146 | 3.2 | 11.3 | 0.00 | 0.00 | 0.00 | 54 | 1013.8 |
| 20260904200049 | 36 | 116 | 1.6 | 11.3 | 0.00 | 0.00 | 0.00 | 53 | 1013.9 |
| 20260904195933 | 36 | 61 | 3.2 | 11.3 | 0.00 | 0.00 | 0.00 | 53 | 1013.9 |
| 20260904195842 | 36 | 61 | 4.8 | 11.3 | 0.00 | 0.00 | 0.00 | 52 | 1013.9 |
| 20260904195731 | 36 | 85 | 6.4 | 11.3 | 0.00 | 0.00 | 0.00 | 51 | 1013.9 |
| 20260904195618 | 36 | 126 | 4.8 | 11.3 | 0.00 | 0.00 | 0.00 | 52 | 1013.9 |
| 20260904195546 | 36 | 125 | 6.4 | 11.3 | 0.00 | 0.00 | 0.00 | 51 | 1013.9 |
| 20260904195431 | 36 | 48 | 8.0 | 11.3 | 0.00 | 0.00 | 0.00 | 51 | 1014.0 |
| 20260904195319 | 36 | 57 | 8.0 | 16.1 | 0.00 | 0.00 | 0.00 | 51 | 1014.0 |
| 20260904195226 | 36 | 90 | 6.4 | 16.1 | 0.00 | 0.00 | 0.00 | 51 | 1014.0 |
| 20260904195132 | 36 | 23 | 6.4 | 16.1 | 0.00 | 0.00 | 0.00 | 52 | 1014.0 |
| 20260904195042 | 36 | 101 | 4.8 | 16.1 | 0.00 | 0.00 | 0.00 | 52 | 1014.1 |
| 20260904194927 | 36 | 157 | 6.4 | 16.1 | 0.00 | 0.00 | 0.00 | 53 | 1014.1 |
| 20260904194855 | 36 | 121 | 6.4 | 16.1 | 0.00 | 0.00 | 0.00 | 53 | 1014.1 |
| 20260904194826 | 36 | 84 | 9.7 | 16.1 | 0.00 | 0.00 | 0.00 | 52 | 1014.0 |
| 20260904194518 | 36 | 75 | 8.0 | 14.5 | 0.00 | 0.00 | 0.00 | 53 | 1014.2 |
| 20260904194450 | 36 | 51 | 6.4 | 14.5 | 0.00 | 0.00 | 0.00 | 52 | 1014.2 |
| 20260904194336 | 36 | 82 | 4.8 | 14.5 | 0.00 | 0.00 | 0.00 | 52 | 1014.1 |
| 20260904194222 | 36 | 63 | 6.4 | 14.5 | 0.00 | 0.00 | 0.00 | 52 | 1014.2 |
| 20260904194130 | 36 | 67 | 6.4 | 14.5 | 0.00 | 0.00 | 0.00 | 52 | 1014.2 |
| 20260904194018 | 36 | 113 | 4.8 | 14.5 | 0.00 | 0.00 | 0.00 | 54 | 1014.3 |
| 20260904193947 | 36 | 97 | 4.8 | 14.5 | 0.00 | 0.00 | 0.00 | 52 | 1014.3 |
| 20260904193836 | 36 | 53 | 4.8 | 14.5 | 0.00 | 0.00 | 0.00 | 53 | 1014.3 |
| 20260904193724 | 36 | 31 | 4.8 | 14.5 | 0.00 | 0.00 | 0.00 | 53 | 1014.2 |
| 20260904193631 | 36 | 42 | 8.0 | 14.5 | 0.00 | 0.00 | 0.00 | 54 | 1014.3 |
| 20260904193517 | 36 | 65 | 9.7 | 14.5 | 0.00 | 0.00 | 0.00 | 53 | 1014.3 |
| 20260904193425 | 36 | 138 | 8.0 | 14.5 | 0.00 | 0.00 | 0.00 | 56 | 1014.3 |
| 20260904193333 | 36 | 130 | 6.4 | 14.5 | 0.00 | 0.00 | 0.00 | 54 | 1014.2 |
| 20260904193305 | 36 | 121 | 6.4 | 12.9 | 0.00 | 0.00 | 0.00 | 51 | 1014.2 |
| 20260904193018 | 36 | 198 | 4.8 | 11.3 | 0.00 | 0.00 | 0.00 | 50 | 1014.2 |
| 20260904192926 | 36 | 177 | 6.4 | 11.3 | 0.00 | 0.00 | 0.00 | 51 | 1014.3 |
| 20260904192832 | 36 | 144 | 3.2 | 11.3 | 0.00 | 0.00 | 0.00 | 50 | 1014.3 |
| 20260904192742 | 36 | 251 | 3.2 | 11.3 | 0.00 | 0.00 | 0.00 | 50 | 1014.4 |
| 20260904192629 | 36 | 184 | 4.8 | 11.3 | 0.00 | 0.00 | 0.00 | 50 | 1014.4 |
| 20260904192536 | 36 | 158 | 6.4 | 11.3 | 0.00 | 0.00 | 0.00 | 51 | 1014.3 |
| 20260904192425 | 36 | 195 | 4.8 | 9.7 | 0.00 | 0.00 | 0.00 | 55 | 1014.3 |
| 20260904192332 | 36 | 154 | 3.2 | 8.0 | 0.00 | 0.00 | 0.00 | 54 | 1014.4 |
| 20260904192221 | 36 | 150 | 3.2 | 8.0 | 0.00 | 0.00 | 0.00 | 54 | 1014.4 |
| 20260904192131 | 36 | 194 | 3.2 | 8.0 | 0.00 | 0.00 | 0.00 | 52 | 1014.3 |
| 20260904192039 | 36 | 200 | 1.6 | 6.4 | 0.00 | 0.00 | 0.00 | 51 | 1014.4 |
| 20260904191923 | 36 | 78 | 1.6 | 12.9 | 0.00 | 0.00 | 0.00 | 51 | 1014.4 |
| 20260904191831 | 36 | 105 | 3.2 | 12.9 | 0.00 | 0.00 | 0.00 | 52 | 1014.3 |
| 20260904191800 | 36 | 105 | 3.2 | 12.9 | 0.00 | 0.00 | 0.00 | 52 | 1014.3 |
| 20260904191518 | 36 | 360 | 3.2 | 12.9 | 0.00 | 0.00 | 0.00 | 53 | 1014.5 |
| 20260904191426 | 36 | 360 | 3.2 | 12.9 | 0.00 | 0.00 | 0.00 | 53 | 1014.6 |
| 20260904191333 | 36 | 14 | 4.8 | 12.9 | 0.00 | 0.00 | 0.00 | 53 | 1014.5 |
| 20260904191221 | 36 | 327 | 6.4 | 12.9 | 0.00 | 0.00 | 0.00 | 53 | 1014.6 |
| 20260904191127 | 36 | 29 | 6.4 | 12.9 | 0.00 | 0.00 | 0.00 | 55 | 1014.6 |
| 20260904191054 | 36 | 36 | 6.4 | 12.9 | 0.00 | 0.00 | 0.00 | 55 | 1014.6 |
| 20260904190922 | 36 | 5 | 6.4 | 12.9 | 0.00 | 0.00 | 0.00 | 53 | 1014.6 |
| 20260904190829 | 36 | 39 | 8.0 | 14.5 | 0.00 | 0.00 | 0.00 | 54 | 1014.7 |
| 20260904190736 | 36 | 9 | 8.0 | 14.5 | 0.00 | 0.00 | 0.00 | 54 | 1014.7 |
| 20260904190623 | 36 | 36 | 8.0 | 14.5 | 0.00 | 0.00 | 0.00 | 53 | 1014.7 |
| 20260904190530 | 36 | 57 | 8.0 | 14.5 | 0.00 | 0.00 | 0.00 | 53 | 1014.8 |
| 20260904190421 | 36 | 90 | 8.0 | 14.5 | 0.00 | 0.00 | 0.00 | 53 | 1014.8 |
| 20260904190330 | 36 | 26 | 6.4 | 14.5 | 0.00 | 0.00 | 0.00 | 53 | 1014.8 |
| 20260904190300 | 36 | 67 | 6.4 | 14.5 | 0.00 | 0.00 | 0.00 | 53 | 1014.8 |
| 20260904190034 | 36 | 48 | 6.4 | 14.5 | 0.00 | 0.00 | 0.00 | 55 | 1014.8 |
| 20260904185927 | 36 | 97 | 6.4 | 11.3 | 0.00 | 0.00 | 0.00 | 54 | 1014.8 |
| 20260904185832 | 36 | 76 | 6.4 | 11.3 | 0.00 | 0.00 | 0.00 | 54 | 1014.8 |
| 20260904185646 | 36 | 157 | 6.4 | 11.3 | 0.00 | 0.00 | 0.00 | 52 | 1014.8 |
| 20260904185533 | 36 | 134 | 4.8 | 11.3 | 0.00 | 0.00 | 0.00 | 51 | 1014.9 |
| 20260904185418 | 37 | 150 | 3.2 | 11.3 | 0.00 | 0.00 | 0.00 | 51 | 1014.9 |
| 20260904185329 | 37 | 127 | 4.8 | 11.3 | 0.00 | 0.00 | 0.00 | 52 | 1014.9 |
| 20260904185235 | 37 | 75 | 4.8 | 11.3 | 0.00 | 0.00 | 0.00 | 52 | 1015.0 |
| 20260904185122 | 37 | 118 | 4.8 | 12.9 | 0.00 | 0.00 | 0.00 | 52 | 1015.0 |
| 20260904185049 | 37 | 355 | 4.8 | 12.9 | 0.00 | 0.00 | 0.00 | 53 | 1015.0 |
| 20260904184934 | 37 | 322 | 6.4 | 12.9 | 0.00 | 0.00 | 0.00 | 53 | 1015.0 |
| 20260904184822 | 37 | 301 | 4.8 | 12.9 | 0.00 | 0.00 | 0.00 | 54 | 1015.0 |
| 20260904184756 | 37 | 341 | 4.8 | 12.9 | 0.00 | 0.00 | 0.00 | 54 | 1015.0 |
| 20260904184528 | 37 | 19 | 6.4 | 12.9 | 0.00 | 0.00 | 0.00 | 53 | 1015.1 |
| 20260904184437 | 37 | 32 | 8.0 | 12.9 | 0.00 | 0.00 | 0.00 | 54 | 1015.1 |
| 20260904184322 | 37 | 21 | 8.0 | 12.9 | 0.00 | 0.00 | 0.00 | 54 | 1015.2 |
| 20260904184228 | 37 | 34 | 6.4 | 12.9 | 0.00 | 0.00 | 0.00 | 54 | 1015.2 |
| 20260904184120 | 37 | 11 | 6.4 | 12.9 | 0.00 | 0.00 | 0.00 | 54 | 1015.2 |
| 20260904184028 | 37 | 35 | 8.0 | 12.9 | 0.00 | 0.00 | 0.00 | 54 | 1015.2 |
| 20260904183934 | 37 | 22 | 8.0 | 12.9 | 0.00 | 0.00 | 0.00 | 55 | 1015.2 |
| 20260904183820 | 36 | 355 | 6.4 | 12.9 | 0.00 | 0.00 | 0.00 | 54 | 1015.2 |
| 20260904183727 | 36 | 92 | 8.0 | 12.9 | 0.00 | 0.00 | 0.00 | 56 | 1015.3 |
| 20260904183638 | 36 | 42 | 8.0 | 12.9 | 0.00 | 0.00 | 0.00 | 55 | 1015.2 |
| 20260904183524 | 36 | 35 | 4.8 | 12.9 | 0.00 | 0.00 | 0.00 | 55 | 1015.3 |
| 20260904183430 | 36 | 163 | 4.8 | 12.9 | 0.00 | 0.00 | 0.00 | 57 | 1015.2 |
| 20260904183338 | 36 | 78 | 6.4 | 12.9 | 0.00 | 0.00 | 0.00 | 57 | 1015.3 |
| 20260904183309 | 36 | 12 | 8.0 | 12.9 | 0.00 | 0.00 | 0.00 | 57 | 1015.3 |
| 20260904183045 | 36 | 15 | 9.7 | 25.7 | 0.00 | 0.00 | 0.00 | 56 | 1015.2 |
| 20260904182951 | 36 | 16 | 9.7 | 25.7 | 0.00 | 0.00 | 0.00 | 57 | 1015.2 |
| 20260904182857 | 36 | 349 | 8.0 | 25.7 | 0.00 | 0.00 | 0.00 | 57 | 1015.3 |
| 20260904182723 | 36 | 325 | 4.8 | 25.7 | 0.00 | 0.00 | 0.00 | 56 | 1015.3 |
| 20260904182631 | 36 | 5 | 4.8 | 25.7 | 0.00 | 0.00 | 0.00 | 55 | 1015.4 |
| 20260904182518 | 36 | 9 | 4.8 | 25.7 | 0.00 | 0.00 | 0.00 | 56 | 1015.4 |
| 20260904182426 | 36 | 36 | 6.4 | 25.7 | 0.00 | 0.00 | 0.00 | 55 | 1015.3 |
| 20260904182337 | 36 | 331 | 11.3 | 25.7 | 0.00 | 0.00 | 0.00 | 56 | 1015.4 |
| 20260904182224 | 36 | 22 | 14.5 | 25.7 | 0.00 | 0.00 | 0.00 | 55 | 1015.3 |
| 20260904182132 | 36 | 148 | 11.3 | 20.9 | 0.00 | 0.00 | 0.00 | 55 | 1015.3 |
| 20260904182018 | 36 | 98 | 4.8 | 12.9 | 0.00 | 0.00 | 0.00 | 55 | 1015.4 |
| 20260904181925 | 36 | 121 | 1.6 | 11.3 | 0.00 | 0.00 | 0.00 | 55 | 1015.4 |
| 20260904181835 | 36 | 281 | 1.6 | 11.3 | 0.00 | 0.00 | 0.00 | 56 | 1015.4 |
| 20260904181807 | 36 | 276 | 1.6 | 12.9 | 0.00 | 0.00 | 0.00 | 53 | 1015.4 |
| 20260904181519 | 36 | 90 | 3.2 | 12.9 | 0.00 | 0.00 | 0.00 | 54 | 1015.4 |
| 20260904181446 | 36 | 90 | 6.4 | 12.9 | 0.00 | 0.00 | 0.00 | 54 | 1015.4 |
| 20260904181332 | 36 | 132 | 6.4 | 12.9 | 0.00 | 0.00 | 0.00 | 56 | 1015.4 |
| 20260904181223 | 36 | 123 | 3.2 | 14.5 | 0.00 | 0.00 | 0.00 | 56 | 1015.5 |
| 20260904181130 | 36 | 112 | 3.2 | 14.5 | 0.00 | 0.00 | 0.00 | 56 | 1015.5 |
| 20260904181036 | 36 | 100 | 4.8 | 14.5 | 0.00 | 0.00 | 0.00 | 55 | 1015.5 |
| 20260904180922 | 36 | 113 | 4.8 | 14.5 | 0.00 | 0.00 | 0.00 | 54 | 1015.5 |
| 20260904180829 | 36 | 65 | 4.8 | 14.5 | 0.00 | 0.00 | 0.00 | 55 | 1015.5 |
| 20260904180720 | 36 | 40 | 4.8 | 14.5 | 0.00 | 0.00 | 0.00 | 54 | 1015.5 |
| 20260904180626 | 36 | 64 | 6.4 | 14.5 | 0.00 | 0.00 | 0.00 | 54 | 1015.6 |
| 20260904180532 | 36 | 88 | 9.7 | 14.5 | 0.00 | 0.00 | 0.00 | 55 | 1015.6 |
| 20260904180420 | 36 | 75 | 6.4 | 14.5 | 0.00 | 0.00 | 0.00 | 54 | 1015.6 |
| 20260904180327 | 36 | 168 | 6.4 | 12.9 | 0.00 | 0.00 | 0.00 | 56 | 1015.6 |
| 20260904180302 | 36 | 118 | 6.4 | 12.9 | 0.00 | 0.00 | 0.00 | 56 | 1015.6 |
| 20260904180035 | 36 | 13 | 8.0 | 11.3 | 0.00 | 0.00 | 0.00 | 56 | 1015.7 |
| 20260904175922 | 36 | 45 | 6.4 | 12.9 | 0.00 | 0.00 | 0.00 | 57 | 1015.8 |
| 20260904175828 | 36 | 46 | 3.2 | 9.7 | 0.00 | 0.00 | 0.00 | 58 | 1015.8 |
| 20260904175736 | 36 | 351 | 1.6 | 9.7 | 0.00 | 0.00 | 0.00 | 57 | 1015.7 |
| 20260904175625 | 36 | 29 | 1.6 | 9.7 | 0.00 | 0.00 | 0.00 | 57 | 1015.9 |
| 20260904175531 | 36 | 28 | 3.2 | 9.7 | 0.00 | 0.00 | 0.00 | 58 | 1015.7 |
| 20260904175418 | 36 | 50 | 6.4 | 16.1 | 0.00 | 0.00 | 0.00 | 58 | 1015.8 |
| 20260904175327 | 36 | 42 | 4.8 | 16.1 | 0.00 | 0.00 | 0.00 | 57 | 1015.9 |
| 20260904175233 | 36 | 46 | 3.2 | 16.1 | 0.00 | 0.00 | 0.00 | 57 | 1015.9 |
| 20260904175120 | 36 | 355 | 6.4 | 16.1 | 0.00 | 0.00 | 0.00 | 59 | 1015.9 |
| 20260904175030 | 36 | 360 | 6.4 | 16.1 | 0.00 | 0.00 | 0.00 | 62 | 1015.8 |
| 20260904174917 | 36 | 346 | 6.4 | 16.1 | 0.00 | 0.00 | 0.00 | 58 | 1015.9 |
| 20260904174824 | 36 | 355 | 9.7 | 16.1 | 0.00 | 0.00 | 0.00 | 57 | 1015.9 |
| 20260904174755 | 36 | 40 | 9.7 | 16.1 | 0.00 | 0.00 | 0.00 | 59 | 1015.9 |
| 20260904174534 | 36 | 49 | 6.4 | 12.9 | 0.00 | 0.00 | 0.00 | 57 | 1015.9 |
| 20260904174421 | 36 | 333 | 3.2 | 9.7 | 0.00 | 0.00 | 0.00 | 55 | 1015.9 |
| 20260904174328 | 36 | 281 | 3.2 | 9.7 | 0.00 | 0.00 | 0.00 | 55 | 1015.9 |
| 20260904174235 | 36 | 225 | 4.8 | 9.7 | 0.00 | 0.00 | 0.00 | 56 | 1016.0 |
| 20260904174122 | 36 | 182 | 4.8 | 9.7 | 0.00 | 0.00 | 0.00 | 56 | 1015.9 |
| 20260904174030 | 36 | 230 | 3.2 | 8.0 | 0.00 | 0.00 | 0.00 | 57 | 1016.0 |
| 20260904173922 | 35 | 213 | 1.6 | 8.0 | 0.00 | 0.00 | 0.00 | 57 | 1016.0 |
| 20260904173828 | 35 | 190 | 1.6 | 8.0 | 0.00 | 0.00 | 0.00 | 59 | 1016.0 |
| 20260904173736 | 35 | 277 | 1.6 | 11.3 | 0.00 | 0.00 | 0.00 | 60 | 1016.0 |
| 20260904173623 | 35 | 321 | 1.6 | 11.3 | 0.00 | 0.00 | 0.00 | 57 | 1016.0 |
| 20260904173531 | 35 | 360 | 1.6 | 11.3 | 0.00 | 0.00 | 0.00 | 57 | 1016.0 |
| 20260904173421 | 35 | 271 | 1.6 | 11.3 | 0.00 | 0.00 | 0.00 | 59 | 1016.1 |
| 20260904173327 | 35 | 341 | 3.2 | 11.3 | 0.00 | 0.00 | 0.00 | 57 | 1016.0 |
| 20260904173256 | 35 | 67 | 3.2 | 11.3 | 0.00 | 0.00 | 0.00 | 57 | 1016.0 |
| 20260904173050 | 35 | 74 | 3.2 | 11.3 | 0.00 | 0.00 | 0.00 | 56 | 1016.1 |
| 20260904172957 | 35 | 91 | 4.8 | 11.3 | 0.00 | 0.00 | 0.00 | 57 | 1016.1 |
| 20260904172826 | 35 | 52 | 4.8 | 9.7 | 0.00 | 0.00 | 0.00 | 59 | 1016.1 |
| 20260904172733 | 35 | 59 | 3.2 | 9.7 | 0.00 | 0.00 | 0.00 | 59 | 1016.1 |
| 20260904172639 | 35 | 59 | 4.8 | 9.7 | 0.00 | 0.00 | 0.00 | 58 | 1016.1 |
| 20260904172525 | 35 | 102 | 4.8 | 9.7 | 0.00 | 0.00 | 0.00 | 59 | 1016.0 |
| 20260904172431 | 35 | 121 | 4.8 | 9.7 | 0.00 | 0.00 | 0.00 | 59 | 1016.0 |
| 20260904172317 | 35 | 25 | 4.8 | 8.0 | 0.00 | 0.00 | 0.00 | 61 | 1016.1 |
| 20260904172229 | 35 | 24 | 6.4 | 8.0 | 0.00 | 0.00 | 0.00 | 61 | 1016.1 |
| 20260904172136 | 35 | 351 | 4.8 | 8.0 | 0.00 | 0.00 | 0.00 | 60 | 1016.1 |
| 20260904172025 | 35 | 308 | 3.2 | 9.7 | 0.00 | 0.00 | 0.00 | 60 | 1016.1 |
| 20260904171932 | 35 | 339 | 1.6 | 9.7 | 0.00 | 0.00 | 0.00 | 58 | 1016.1 |
| 20260904171838 | 35 | 107 | 3.2 | 9.7 | 0.00 | 0.00 | 0.00 | 61 | 1016.1 |
| 20260904171812 | 35 | 50 | 3.2 | 9.7 | 0.00 | 0.00 | 0.00 | 61 | 1016.1 |
| 20260904171524 | 35 | 126 | 3.2 | 11.3 | 0.00 | 0.00 | 0.00 | 60 | 1016.1 |
| 20260904171429 | 35 | 121 | 3.2 | 11.3 | 0.00 | 0.00 | 0.00 | 62 | 1016.1 |
| 20260904171357 | 35 | 101 | 4.8 | 11.3 | 0.00 | 0.00 | 0.00 | 63 | 1016.1 |
| 20260904171222 | 35 | 34 | 4.8 | 11.3 | 0.00 | 0.00 | 0.00 | 60 | 1016.2 |
| 20260904171131 | 35 | 355 | 1.6 | 11.3 | 0.00 | 0.00 | 0.00 | 61 | 1016.2 |
| 20260904171022 | 35 | 186 | 1.6 | 11.3 | 0.00 | 0.00 | 0.00 | 59 | 1016.2 |
| 20260904170928 | 35 | 186 | 3.2 | 11.3 | 0.00 | 0.00 | 0.00 | 58 | 1016.2 |
| 20260904170835 | 35 | 240 | 6.4 | 11.3 | 0.00 | 0.00 | 0.00 | 57 | 1016.2 |
| 20260904170722 | 35 | 188 | 8.0 | 11.3 | 0.00 | 0.00 | 0.00 | 58 | 1016.2 |
| 20260904170628 | 35 | 161 | 8.0 | 12.9 | 0.00 | 0.00 | 0.00 | 59 | 1016.3 |
| 20260904170519 | 35 | 155 | 6.4 | 12.9 | 0.00 | 0.00 | 0.00 | 60 | 1016.3 |
| 20260904170426 | 35 | 87 | 6.4 | 12.9 | 0.00 | 0.00 | 0.00 | 58 | 1016.3 |
| 20260904170354 | 35 | 129 | 4.8 | 12.9 | 0.00 | 0.00 | 0.00 | 59 | 1016.3 |
| 20260904170325 | 35 | 127 | 6.4 | 12.9 | 0.00 | 0.00 | 0.00 | 58 | 1016.4 |
| 20260904170037 | 35 | 157 | 3.2 | 12.9 | 0.00 | 0.00 | 0.00 | 58 | 1016.3 |
| 20260904165928 | 35 | 16 | 3.2 | 12.9 | 0.00 | 0.00 | 0.00 | 59 | 1016.4 |
| 20260904165854 | 35 | 51 | 4.8 | 12.9 | 0.00 | 0.00 | 0.00 | 60 | 1016.4 |
| 20260904165721 | 35 | 26 | 3.2 | 11.3 | 0.00 | 0.00 | 0.00 | 60 | 1016.4 |
| 20260904165628 | 35 | 355 | 3.2 | 11.3 | 0.00 | 0.00 | 0.00 | 58 | 1016.3 |
| 20260904165517 | 35 | 196 | 3.2 | 11.3 | 0.00 | 0.00 | 0.00 | 60 | 1016.4 |
| 20260904165423 | 35 | 147 | 4.8 | 11.3 | 0.00 | 0.00 | 0.00 | 59 | 1016.4 |
| 20260904165350 | 35 | 84 | 4.8 | 11.3 | 0.00 | 0.00 | 0.00 | 58 | 1016.5 |
| 20260904165220 | 35 | 103 | 6.4 | 11.3 | 0.00 | 0.00 | 0.00 | 59 | 1016.5 |
| 20260904165127 | 35 | 64 | 8.0 | 11.3 | 0.00 | 0.00 | 0.00 | 60 | 1016.5 |
| 20260904165054 | 35 | 59 | 8.0 | 11.3 | 0.00 | 0.00 | 0.00 | 60 | 1016.6 |
| 20260904164941 | 35 | 49 | 6.4 | 12.9 | 0.00 | 0.00 | 0.00 | 60 | 1016.5 |
| 20260904164846 | 35 | 15 | 3.2 | 9.7 | 0.00 | 0.00 | 0.00 | 58 | 1016.5 |
| 20260904164800 | 35 | 28 | 4.8 | 9.7 | 0.00 | 0.00 | 0.00 | 58 | 1016.5 |
| 20260904164534 | 35 | 46 | 4.8 | 9.7 | 0.00 | 0.00 | 0.00 | 60 | 1016.5 |
| 20260904164420 | 35 | 31 | 6.4 | 9.7 | 0.00 | 0.00 | 0.00 | 59 | 1016.5 |
| 20260904164328 | 35 | 35 | 6.4 | 11.3 | 0.00 | 0.00 | 0.00 | 61 | 1016.6 |
| 20260904164234 | 35 | 80 | 4.8 | 9.7 | 0.00 | 0.00 | 0.00 | 60 | 1016.6 |
| 20260904164120 | 35 | 50 | 4.8 | 9.7 | 0.00 | 0.00 | 0.00 | 65 | 1016.6 |
| 20260904164050 | 35 | 86 | 4.8 | 9.7 | 0.00 | 0.00 | 0.00 | 63 | 1016.6 |
| 20260904163936 | 35 | 83 | 4.8 | 9.7 | 0.00 | 0.00 | 0.00 | 60 | 1016.6 |
| 20260904163822 | 35 | 53 | 3.2 | 9.7 | 0.00 | 0.00 | 0.00 | 61 | 1016.6 |
| 20260904163747 | 34 | 22 | 1.6 | 6.4 | 0.00 | 0.00 | 0.00 | 60 | 1016.6 |
| 20260904163634 | 34 | 24 | 1.6 | 6.4 | 0.00 | 0.00 | 0.00 | 59 | 1016.7 |
| 20260904163520 | 34 | 157 | 1.6 | 8.0 | 0.00 | 0.00 | 0.00 | 60 | 1016.6 |
| 20260904163426 | 34 | 293 | 1.6 | 8.0 | 0.00 | 0.00 | 0.00 | 60 | 1016.6 |
| 20260904163336 | 34 | 275 | 1.6 | 8.0 | 0.00 | 0.00 | 0.00 | 60 | 1016.7 |
| 20260904163307 | 34 | 196 | 3.2 | 9.7 | 0.00 | 0.00 | 0.00 | 60 | 1016.7 |
| 20260904163020 | 35 | 213 | 4.8 | 9.7 | 0.00 | 0.00 | 0.00 | 60 | 1016.7 |
| 20260904162928 | 35 | 230 | 4.8 | 9.7 | 0.00 | 0.00 | 0.00 | 60 | 1016.7 |
| 20260904162839 | 35 | 254 | 4.8 | 9.7 | 0.00 | 0.00 | 0.00 | 60 | 1016.6 |
| 20260904162744 | 35 | 171 | 6.4 | 9.7 | 0.00 | 0.00 | 0.00 | 59 | 1016.6 |
| 20260904162630 | 35 | 190 | 4.8 | 9.7 | 0.00 | 0.00 | 0.00 | 60 | 1016.7 |
| 20260904162556 | 35 | 209 | 6.4 | 9.7 | 0.00 | 0.00 | 0.00 | 60 | 1016.6 |
| 20260904162422 | 35 | 198 | 4.8 | 9.7 | 0.00 | 0.00 | 0.00 | 60 | 1016.6 |
| 20260904162327 | 35 | 176 | 3.2 | 9.7 | 0.00 | 0.00 | 0.00 | 60 | 1016.7 |
| 20260904162234 | 35 | 260 | 3.2 | 9.7 | 0.00 | 0.00 | 0.00 | 61 | 1016.6 |
| 20260904162126 | 35 | 254 | 3.2 | 9.7 | 0.00 | 0.00 | 0.00 | 60 | 1016.7 |
| 20260904162033 | 35 | 275 | 3.2 | 9.7 | 0.00 | 0.00 | 0.00 | 60 | 1016.6 |
| 20260904161920 | 35 | 212 | 4.8 | 9.7 | 0.00 | 0.00 | 0.00 | 60 | 1016.7 |
| 20260904161848 | 35 | 194 | 4.8 | 9.7 | 0.00 | 0.00 | 0.00 | 60 | 1016.7 |
| 20260904161818 | 35 | 226 | 4.8 | 11.3 | 0.00 | 0.00 | 0.00 | 60 | 1016.7 |
| 20260904161554 | 35 | 265 | 6.4 | 11.3 | 0.00 | 0.00 | 0.00 | 61 | 1016.7 |
| 20260904161441 | 35 | 292 | 3.2 | 11.3 | 0.00 | 0.00 | 0.00 | 63 | 1016.8 |
| 20260904161327 | 35 | 231 | 1.6 | 11.3 | 0.00 | 0.00 | 0.00 | 62 | 1016.7 |
| 20260904161233 | 34 | 191 | 3.2 | 11.3 | 0.00 | 0.00 | 0.00 | 60 | 1016.7 |
| 20260904161119 | 35 | 149 | 4.8 | 11.3 | 0.00 | 0.00 | 0.00 | 60 | 1016.7 |
| 20260904161026 | 35 | 199 | 6.4 | 11.3 | 0.00 | 0.00 | 0.00 | 60 | 1016.7 |
| 20260904160917 | 35 | 187 | 4.8 | 11.3 | 0.00 | 0.00 | 0.00 | 61 | 1016.8 |
| 20260904160823 | 35 | 238 | 3.2 | 8.0 | 0.00 | 0.00 | 0.00 | 61 | 1016.8 |
| 20260904160731 | 35 | 178 | 3.2 | 6.4 | 0.00 | 0.00 | 0.00 | 60 | 1016.7 |
| 20260904160618 | 35 | 153 | 3.2 | 8.0 | 0.00 | 0.00 | 0.00 | 61 | 1016.8 |
| 20260904160545 | 34 | 155 | 3.2 | 8.0 | 0.00 | 0.00 | 0.00 | 60 | 1016.7 |
| 20260904160452 | 34 | 142 | 1.6 | 8.0 | 0.00 | 0.00 | 0.00 | 60 | 1016.8 |
| 20260904160358 | 34 | 200 | 1.6 | 8.0 | 0.00 | 0.00 | 0.00 | 60 | 1016.7 |
| 20260904160252 | 35 | 90 | 1.6 | 8.0 | 0.00 | 0.00 | 0.00 | 59 | 1016.7 |
| 20260904160025 | 34 | 338 | 1.6 | 8.0 | 0.00 | 0.00 | 0.00 | 60 | 1016.8 |
| 20260904155933 | 34 | 233 | 3.2 | 8.0 | 0.00 | 0.00 | 0.00 | 59 | 1016.8 |
| 20260904155820 | 35 | 233 | 4.8 | 8.0 | 0.00 | 0.00 | 0.00 | 59 | 1016.8 |
| 20260904155731 | 35 | 238 | 3.2 | 6.4 | 0.00 | 0.00 | 0.00 | 62 | 1016.7 |
| 20260904155617 | 34 | 165 | 1.6 | 8.0 | 0.00 | 0.00 | 0.00 | 61 | 1016.7 |
| 20260904155543 | 34 | 234 | 1.6 | 8.0 | 0.00 | 0.00 | 0.00 | 61 | 1016.7 |
| 20260904155429 | 34 | 111 | 1.6 | 9.7 | 0.00 | 0.00 | 0.00 | 62 | 1016.7 |
| 20260904155335 | 34 | 5 | 1.6 | 9.7 | 0.00 | 0.00 | 0.00 | 61 | 1016.8 |
| 20260904155223 | 34 | 5 | 1.6 | 9.7 | 0.00 | 0.00 | 0.00 | 60 | 1016.8 |
| 20260904155149 | 34 | 5 | 0.0 | 9.7 | 0.00 | 0.00 | 0.00 | 60 | 1016.8 |
| 20260904155019 | 34 | 5 | 1.6 | 9.7 | 0.00 | 0.00 | 0.00 | 62 | 1016.8 |
| 20260904154927 | 34 | 346 | 3.2 | 9.7 | 0.00 | 0.00 | 0.00 | 61 | 1016.8 |
| 20260904154834 | 34 | 258 | 4.8 | 9.7 | 0.00 | 0.00 | 0.00 | 60 | 1016.8 |
| 20260904154804 | 34 | 214 | 4.8 | 9.7 | 0.00 | 0.00 | 0.00 | 60 | 1016.8 |
| 20260904154522 | 34 | 198 | 3.2 | 9.7 | 0.00 | 0.00 | 0.00 | 62 | 1016.8 |
| 20260904154430 | 34 | 158 | 4.8 | 9.7 | 0.00 | 0.00 | 0.00 | 63 | 1016.9 |
| 20260904154337 | 34 | 205 | 4.8 | 9.7 | 0.00 | 0.00 | 0.00 | 64 | 1016.9 |
| 20260904154222 | 34 | 189 | 1.6 | 4.8 | 0.00 | 0.00 | 0.00 | 63 | 1016.8 |
| 20260904154131 | 34 | 321 | 0.0 | 4.8 | 0.00 | 0.00 | 0.00 | 63 | 1016.8 |
| 20260904154022 | 33 | 94 | 0.0 | 4.8 | 0.00 | 0.00 | 0.00 | 62 | 1016.8 |
| 20260904153927 | 33 | 46 | 0.0 | 8.0 | 0.00 | 0.00 | 0.00 | 61 | 1016.9 |
| 20260904153834 | 33 | 46 | 1.6 | 8.0 | 0.00 | 0.00 | 0.00 | 62 | 1016.9 |
| 20260904153721 | 33 | 46 | 3.2 | 8.0 | 0.00 | 0.00 | 0.00 | 63 | 1016.8 |
| 20260904153629 | 33 | 46 | 3.2 | 9.7 | 0.00 | 0.00 | 0.00 | 62 | 1016.9 |
| 20260904153535 | 33 | 44 | 1.6 | 9.7 | 0.00 | 0.00 | 0.00 | 63 | 1016.9 |
| 20260904153426 | 33 | 49 | 3.2 | 9.7 | 0.00 | 0.00 | 0.00 | 63 | 1016.9 |
| 20260904153332 | 33 | 51 | 4.8 | 9.7 | 0.00 | 0.00 | 0.00 | 63 | 1016.9 |
| 20260904153303 | 33 | 49 | 4.8 | 9.7 | 0.00 | 0.00 | 0.00 | 62 | 1016.9 |
| 20260904153057 | 33 | 129 | 4.8 | 9.7 | 0.00 | 0.00 | 0.00 | 64 | 1016.8 |
| 20260904152923 | 33 | 122 | 4.8 | 9.7 | 0.00 | 0.00 | 0.00 | 62 | 1016.9 |